FBU77U FMEE-LFPO

Flight info

Callsign FBU77U
Flight time 11h 10m
Altitude 34000
Route UVENA2J UVENA UN304 MIDRI/N0500F360 UN304 MOGDU/N0494F380 UN304 DWA DCT XADOX DCT KONET/N0492F390 UG650 RASKA/N0494F380 T513 EGMEG/N0491F390 G660 JDW/N0493F380 L677 CVO L617 MENKU Y661 ANTAR UN133 KPC UN137 NEVRA DCT SKP DCT KOGIS DCT BITLA DCT DOBAR DCT MOKUN DCT NERRA DCT TIKSA DCT SIPAL DCT BAXON DCT CERVI DCT MOLUS DCT UNKIR DCT DJL
Aircraft A35K/H-SABDE1E2E3GHIJ1J2J3J4J5M1P2RWXYZ/LB1D1

Departure

Time 2026-04-23 18:20
Airport Roland Garros Airport (FMEE)

Arrival

Time 2026-04-24 05:30
Airport Paris-Orly Airport (LFPO)
Time Latitude Longitude Altitude Speed Heading
2026-04-23 17:52 -20.89099 55.51300 91 ft 0 kts 211°
2026-04-23 18:10 -20.89098 55.51301 80 ft 2 kts 211°
2026-04-23 18:10 -20.89076 55.51313 101 ft 4 kts 208°
2026-04-23 18:10 -20.89055 55.51326 82 ft 4 kts 224°
2026-04-23 18:10 -20.89045 55.51340 84 ft 4 kts 265°
2026-04-23 18:11 -20.89047 55.51362 85 ft 3 kts 295°
2026-04-23 18:11 -20.89057 55.51383 84 ft 4 kts 296°
2026-04-23 18:11 -20.89069 55.51408 85 ft 2 kts 296°
2026-04-23 18:11 -20.89070 55.51410 85 ft 0 kts 296°
2026-04-23 18:14 -20.89070 55.51409 85 ft 0 kts 296°
2026-04-23 18:14 -20.89068 55.51405 85 ft 2 kts 296°
2026-04-23 18:15 -20.89059 55.51386 84 ft 4 kts 296°
2026-04-23 18:15 -20.89042 55.51350 85 ft 7 kts 296°
2026-04-23 18:15 -20.89017 55.51296 85 ft 9 kts 297°
2026-04-23 18:15 -20.88984 55.51226 85 ft 10 kts 296°
2026-04-23 18:16 -20.88931 55.51181 85 ft 11 kts 341°
2026-04-23 18:16 -20.88842 55.51150 66 ft 14 kts 342°
2026-04-23 18:16 -20.88758 55.51111 60 ft 12 kts 319°
2026-04-23 18:17 -20.88689 55.50905 58 ft 17 kts 282°
2026-04-23 18:17 -20.88661 55.50767 54 ft 21 kts 282°
2026-04-23 18:17 -20.88636 55.50642 56 ft 15 kts 282°
2026-04-23 18:17 -20.88615 55.50565 52 ft 11 kts 300°
2026-04-23 18:18 -20.88583 55.50520 54 ft 4 kts 306°
2026-04-23 18:18 -20.88587 55.50498 50 ft 2 kts 225°
2026-04-23 18:18 -20.88597 55.50500 50 ft 1 kts 170°
2026-04-23 18:18 -20.88602 55.50507 50 ft 1 kts 126°
2026-04-23 18:19 -20.88603 55.50514 50 ft 0 kts 108°
2026-04-23 18:19 -20.88610 55.50539 52 ft 20 kts 106°
2026-04-23 18:19 -20.88686 55.50902 59 ft 80 kts 102°
2026-04-23 18:19 -20.88845 55.51687 58 ft 135 kts 102°
2026-04-23 18:20 -20.89077 55.52834 176 ft 171 kts 103°
2026-04-23 18:20 -20.89223 55.54085 815 ft 170 kts 89°
2026-04-23 18:20 -20.88620 55.55168 1365 ft 186 kts 41°
2026-04-23 18:20 -20.87317 55.55539 1504 ft 208 kts 356°
2026-04-23 18:21 -20.85829 55.55299 1661 ft 224 kts 356°
2026-04-23 18:21 -20.84214 55.55185 1778 ft 242 kts
2026-04-23 18:21 -20.82473 55.55293 1946 ft 260 kts
2026-04-23 18:21 -20.80637 55.55549 2349 ft 267 kts 13°
2026-04-23 18:22 -20.78790 55.55830 2938 ft 271 kts
2026-04-23 18:22 -20.76909 55.55577 3504 ft 277 kts 345°
2026-04-23 18:22 -20.75100 55.54832 4053 ft 280 kts 340°
2026-04-23 18:22 -20.73298 55.54015 4566 ft 283 kts 340°
2026-04-23 18:23 -20.72092 55.53471 4918 ft 284 kts 340°
2026-04-23 18:23 -20.67800 55.51569 6174 ft 288 kts 341°
2026-04-23 18:24 -20.64053 55.49934 7154 ft 294 kts 341°
2026-04-23 18:24 -20.62158 55.49108 7704 ft 294 kts 341°
2026-04-23 18:24 -20.60277 55.48290 8206 ft 296 kts 341°
2026-04-23 18:25 -20.56431 55.46617 9243 ft 300 kts 341°
2026-04-23 18:25 -20.54486 55.45766 9784 ft 302 kts 341°
2026-04-23 18:25 -20.52530 55.44911 10181 ft 308 kts 341°
2026-04-23 18:25 -20.50501 55.44025 10371 ft 322 kts 341°
2026-04-23 18:26 -20.48379 55.43099 10561 ft 336 kts 341°
2026-04-23 18:26 -20.46170 55.42136 10759 ft 349 kts 340°
2026-04-23 18:26 -20.43911 55.41150 10929 ft 361 kts 340°
2026-04-23 18:26 -20.41547 55.40119 11113 ft 373 kts 340°
2026-04-23 18:27 -20.39109 55.39055 11277 ft 384 kts 340°
2026-04-23 18:27 -20.36600 55.37960 11455 ft 395 kts 340°
2026-04-23 18:27 -20.34019 55.36834 11683 ft 403 kts 340°
2026-04-23 18:27 -20.31412 55.35698 12063 ft 406 kts 340°
2026-04-23 18:28 -20.28788 55.34552 12479 ft 409 kts 340°
2026-04-23 18:28 -20.26150 55.33403 12866 ft 411 kts 340°
2026-04-23 18:28 -20.24392 55.32637 13138 ft 413 kts 340°
2026-04-23 18:28 -20.21729 55.31478 13563 ft 414 kts 340°
2026-04-23 18:29 -20.19050 55.30311 13951 ft 417 kts 340°
2026-04-23 18:29 -20.15475 55.28756 14398 ft 420 kts 340°
2026-04-23 18:29 -20.13648 55.27961 14669 ft 421 kts 340°
2026-04-23 18:29 -20.10931 55.26782 15028 ft 423 kts 340°
2026-04-23 18:30 -20.08199 55.25597 15382 ft 425 kts 340°
2026-04-23 18:30 -20.05452 55.24404 15751 ft 427 kts 340°
2026-04-23 18:30 -20.02729 55.23223 16128 ft 429 kts 340°
2026-04-23 18:30 -19.99956 55.22017 16488 ft 431 kts 340°
2026-04-23 18:31 -19.97172 55.20809 16856 ft 433 kts 340°
2026-04-23 18:31 -19.94367 55.19593 17179 ft 435 kts 340°
2026-04-23 18:31 -19.91558 55.18375 17552 ft 437 kts 340°
2026-04-23 18:31 -19.88739 55.17154 17920 ft 438 kts 339°
2026-04-23 18:32 -19.85906 55.15928 18271 ft 440 kts 339°
2026-04-23 18:32 -19.83094 55.14710 18568 ft 442 kts 339°
2026-04-23 18:32 -19.80239 55.13476 18874 ft 443 kts 339°
2026-04-23 18:32 -19.77368 55.12234 19188 ft 444 kts 339°
2026-04-23 18:33 -19.74502 55.10993 19500 ft 445 kts 339°
2026-04-23 18:33 -19.71629 55.09751 19804 ft 447 kts 339°
2026-04-23 18:33 -19.68751 55.08508 20113 ft 448 kts 339°
2026-04-23 18:33 -19.65847 55.07253 20408 ft 449 kts 339°
2026-04-23 18:34 -19.62972 55.06012 20690 ft 451 kts 339°
2026-04-23 18:34 -19.60060 55.04754 20998 ft 452 kts 339°
2026-04-23 18:34 -19.57136 55.03493 21295 ft 453 kts 339°
2026-04-23 18:34 -19.54212 55.02232 21590 ft 455 kts 339°
2026-04-23 18:35 -19.51275 55.00967 21887 ft 456 kts 339°
2026-04-23 18:35 -19.48322 54.99695 22176 ft 458 kts 339°
2026-04-23 18:35 -19.45370 54.98424 22477 ft 459 kts 339°
2026-04-23 18:35 -19.42405 54.97147 22754 ft 461 kts 339°
2026-04-23 18:36 -19.39436 54.95869 23055 ft 462 kts 339°
2026-04-23 18:36 -19.36443 54.94581 23359 ft 463 kts 339°
2026-04-23 18:36 -19.33484 54.93309 23611 ft 465 kts 339°
2026-04-23 18:36 -19.30479 54.92018 23809 ft 467 kts 339°
2026-04-23 18:37 -19.27458 54.90720 24017 ft 470 kts 339°
2026-04-23 18:37 -19.24428 54.89418 24232 ft 471 kts 339°
2026-04-23 18:37 -19.21383 54.88111 24449 ft 473 kts 339°
2026-04-23 18:37 -19.18325 54.86799 24668 ft 475 kts 339°
2026-04-23 18:38 -19.15252 54.85480 24891 ft 477 kts 339°
2026-04-23 18:38 -19.12165 54.84156 25092 ft 479 kts 339°
2026-04-23 18:38 -19.09069 54.82829 25302 ft 480 kts 339°
2026-04-23 18:38 -19.05962 54.81497 25516 ft 482 kts 339°
2026-04-23 18:39 -19.02889 54.80153 25714 ft 484 kts 336°
2026-04-23 18:39 -18.99895 54.78476 25928 ft 487 kts 328°
2026-04-23 18:39 -18.97184 54.76318 26144 ft 490 kts 319°
2026-04-23 18:39 -18.94672 54.73879 26361 ft 491 kts 317°
2026-04-23 18:40 -18.92188 54.71386 26576 ft 494 kts 317°
2026-04-23 18:40 -18.89697 54.68887 26793 ft 495 kts 317°
2026-04-23 18:40 -18.87186 54.66375 27006 ft 497 kts 317°
2026-04-23 18:40 -18.84664 54.63858 27207 ft 499 kts 317°
2026-04-23 18:41 -18.82131 54.61336 27423 ft 501 kts 317°
2026-04-23 18:41 -18.79587 54.58805 27609 ft 503 kts 317°
2026-04-23 18:41 -18.77066 54.56300 27808 ft 505 kts 317°
2026-04-23 18:41 -18.74506 54.53758 28017 ft 506 kts 317°
2026-04-23 18:42 -18.71934 54.51204 28216 ft 508 kts 317°
2026-04-23 18:42 -18.69355 54.48645 28396 ft 510 kts 317°
2026-04-23 18:42 -18.66757 54.46068 28579 ft 512 kts 317°
2026-04-23 18:42 -18.64155 54.43489 28760 ft 514 kts 317°
2026-04-23 18:43 -18.61443 54.41034 28957 ft 514 kts 323°
2026-04-23 18:43 -18.58439 54.39007 29234 ft 512 kts 333°
2026-04-23 18:43 -18.55253 54.37333 29528 ft 511 kts 335°
2026-04-23 18:43 -18.52015 54.35763 29815 ft 511 kts 336°
2026-04-23 18:44 -18.48765 54.34248 30092 ft 510 kts 336°
2026-04-23 18:44 -18.45556 54.32769 30318 ft 509 kts 336°
2026-04-23 18:44 -18.42314 54.31271 30585 ft 508 kts 336°
2026-04-23 18:44 -18.39080 54.29767 30864 ft 507 kts 336°
2026-04-23 18:45 -18.35860 54.28260 31143 ft 505 kts 336°
2026-04-23 18:45 -18.32661 54.26755 31438 ft 503 kts 336°
2026-04-23 18:45 -18.29468 54.25249 31701 ft 502 kts 336°
2026-04-23 18:45 -18.26277 54.23742 31920 ft 502 kts 336°
2026-04-23 18:46 -18.23090 54.22237 32165 ft 501 kts 336°
2026-04-23 18:46 -18.19951 54.20756 32440 ft 499 kts 336°
2026-04-23 18:46 -18.16784 54.19263 32701 ft 497 kts 336°
2026-04-23 18:46 -18.13635 54.17778 32986 ft 495 kts 336°
2026-04-23 18:47 -18.10492 54.16298 33276 ft 493 kts 336°
2026-04-23 18:47 -18.07363 54.14827 33546 ft 492 kts 336°
2026-04-23 18:47 -18.04247 54.13351 33815 ft 490 kts 336°
2026-04-23 18:47 -18.01138 54.11872 33954 ft 491 kts 336°
2026-04-23 18:48 -17.98003 54.10378 33961 ft 495 kts 336°
2026-04-23 18:48 -17.91738 54.07395 33977 ft 493 kts 336°
2026-04-23 18:49 -17.85530 54.04448 33958 ft 492 kts 336°
2026-04-23 18:49 -17.79280 54.01486 33964 ft 492 kts 336°
2026-04-23 18:50 -17.74093 53.99030 33968 ft 491 kts 336°
2026-04-23 18:50 -17.66834 53.95596 33966 ft 491 kts 336°
2026-04-23 18:51 -17.60602 53.92649 33969 ft 491 kts 336°
2026-04-23 18:51 -17.54365 53.89704 33958 ft 491 kts 336°
2026-04-23 18:52 -17.48138 53.86764 33967 ft 491 kts 336°
2026-04-23 18:52 -17.41891 53.83817 33962 ft 491 kts 336°
2026-04-23 18:53 -17.35662 53.80881 33964 ft 491 kts 336°
2026-04-23 18:53 -17.29477 53.77968 33962 ft 490 kts 336°
2026-04-23 18:54 -17.23252 53.75038 33967 ft 490 kts 336°
2026-04-23 18:54 -17.17018 53.72106 33963 ft 490 kts 336°
2026-04-23 18:55 -17.10791 53.69180 33961 ft 491 kts 336°
2026-04-23 18:55 -17.04550 53.66249 33960 ft 491 kts 336°
2026-04-23 18:56 -16.99367 53.63816 33954 ft 492 kts 336°
2026-04-23 18:56 -16.92093 53.60405 33957 ft 492 kts 336°
2026-04-23 18:57 -16.85836 53.57473 33956 ft 493 kts 335°
2026-04-23 18:57 -16.79574 53.54541 33950 ft 493 kts 335°
2026-04-23 18:58 -16.73314 53.51613 33950 ft 493 kts 335°
2026-04-23 18:58 -16.67051 53.48685 33948 ft 493 kts 335°
2026-04-23 18:59 -16.60794 53.45761 33948 ft 493 kts 335°
2026-04-23 18:59 -16.54540 53.42841 33949 ft 493 kts 335°
2026-04-23 19:00 -16.48320 53.39939 33950 ft 493 kts 335°
2026-04-23 19:00 -16.42048 53.37015 33941 ft 493 kts 335°
2026-04-23 19:01 -16.35767 53.34094 33950 ft 493 kts 335°
2026-04-23 19:01 -16.29535 53.31192 33948 ft 493 kts 335°
2026-04-23 19:02 -16.24279 53.28743 33946 ft 493 kts 335°
2026-04-23 19:02 -16.16988 53.25352 33946 ft 493 kts 335°
2026-04-23 19:03 -16.10702 53.22433 33943 ft 494 kts 335°
2026-04-23 19:03 -16.04465 53.19537 33948 ft 494 kts 335°
2026-04-23 19:04 -15.98176 53.16618 33943 ft 494 kts 334°
2026-04-23 19:04 -15.91883 53.13701 33938 ft 494 kts 334°
2026-04-23 19:05 -15.85635 53.10807 33945 ft 495 kts 334°
2026-04-23 19:05 -15.79343 53.07894 33945 ft 495 kts 334°
2026-04-23 19:06 -15.73040 53.04978 33944 ft 495 kts 334°
2026-04-23 19:06 -15.66731 53.02061 33937 ft 496 kts 334°
2026-04-23 19:07 -15.60432 52.99151 33934 ft 496 kts 334°
2026-04-23 19:07 -15.54157 52.96254 33937 ft 496 kts 334°
2026-04-23 19:08 -15.47845 52.93341 33940 ft 496 kts 334°
2026-04-23 19:08 -15.41543 52.90435 33937 ft 495 kts 334°
2026-04-23 19:09 -15.35276 52.87547 33934 ft 495 kts 334°
2026-04-23 19:09 -15.28976 52.84646 33935 ft 495 kts 334°
2026-04-23 19:10 -15.22675 52.81747 33942 ft 495 kts 334°
2026-04-23 19:10 -15.16382 52.78853 33934 ft 494 kts 334°
2026-04-23 19:11 -15.10089 52.75960 33942 ft 494 kts 334°
2026-04-23 19:11 -15.03845 52.73093 33931 ft 494 kts 334°
2026-04-23 19:12 -14.98586 52.70678 33929 ft 494 kts 334°
2026-04-23 19:12 -14.91291 52.67332 33927 ft 493 kts 334°
2026-04-23 19:13 -14.85015 52.64456 33932 ft 492 kts 334°
2026-04-23 19:13 -14.78746 52.61584 33935 ft 492 kts 334°
2026-04-23 19:14 -14.72483 52.58717 33932 ft 492 kts 334°
2026-04-23 19:14 -14.66267 52.55872 33935 ft 491 kts 334°
2026-04-23 19:15 -14.60016 52.53014 33934 ft 491 kts 334°
2026-04-23 19:15 -14.53763 52.50157 33937 ft 490 kts 334°
2026-04-23 19:16 -14.47520 52.47306 33932 ft 490 kts 334°
2026-04-23 19:16 -14.42337 52.44940 33933 ft 490 kts 334°
2026-04-23 19:17 -14.31969 52.40212 33931 ft 489 kts 334°
2026-04-23 19:17 -14.26755 52.37836 33934 ft 489 kts 334°
2026-04-23 19:18 -14.20565 52.35017 33933 ft 489 kts 334°
2026-04-23 19:18 -14.14337 52.32181 33930 ft 488 kts 334°
2026-04-23 19:19 -14.05000 52.27935 33931 ft 488 kts 334°
2026-04-23 19:20 -13.95708 52.23712 33930 ft 488 kts 334°
2026-04-23 19:20 -13.89483 52.20885 33931 ft 488 kts 334°
2026-04-23 19:21 -13.80152 52.16651 33925 ft 488 kts 334°
2026-04-23 19:22 -13.73972 52.13848 33928 ft 488 kts 334°
2026-04-23 19:22 -13.64643 52.09621 33931 ft 488 kts 334°
2026-04-23 19:23 -13.58417 52.06803 33925 ft 489 kts 334°
2026-04-23 19:24 -13.49075 52.02576 33924 ft 489 kts 334°
2026-04-23 19:24 -13.39736 51.98354 33924 ft 489 kts 334°
2026-04-23 19:25 -13.27317 51.92745 33922 ft 489 kts 334°
2026-04-23 19:26 -13.17971 51.88528 33922 ft 489 kts 334°
2026-04-23 19:27 -13.02364 51.81494 33920 ft 490 kts 334°
2026-04-23 19:28 -12.89908 51.75887 33919 ft 491 kts 334°
2026-04-23 19:29 -12.80516 51.71664 33919 ft 491 kts 334°
2026-04-23 19:30 -12.71161 51.67461 33916 ft 491 kts 334°
2026-04-23 19:31 -12.61764 51.63241 33917 ft 491 kts 334°
2026-04-23 19:31 -12.55494 51.60429 33919 ft 491 kts 334°
2026-04-23 19:32 -12.49226 51.57618 33915 ft 491 kts 334°
2026-04-23 19:32 -12.42965 51.54812 33990 ft 490 kts 334°
2026-04-23 19:33 -12.36711 51.52010 33978 ft 489 kts 334°
2026-04-23 19:33 -12.33631 51.50632 34198 ft 487 kts 334°
2026-04-23 19:33 -12.27458 51.47870 34789 ft 481 kts 334°
2026-04-23 19:34 -12.24394 51.46499 35015 ft 480 kts 334°
2026-04-23 19:34 -12.21329 51.45127 35213 ft 479 kts 334°
2026-04-23 19:34 -12.15225 51.42398 35613 ft 478 kts 334°
2026-04-23 19:35 -12.12222 51.41055 35794 ft 477 kts 334°
2026-04-23 19:35 -12.09177 51.39695 35907 ft 479 kts 334°
2026-04-23 19:35 -12.06111 51.38325 35910 ft 482 kts 334°
2026-04-23 19:36 -11.99951 51.35574 35911 ft 483 kts 334°
2026-04-23 19:36 -11.93800 51.32829 35910 ft 482 kts 334°
2026-04-23 19:37 -11.87649 51.30086 35908 ft 482 kts 334°
2026-04-23 19:37 -11.81509 51.27349 35913 ft 481 kts 334°
2026-04-23 19:38 -11.75362 51.24610 35909 ft 481 kts 334°
2026-04-23 19:38 -11.69222 51.21875 35905 ft 481 kts 334°
2026-04-23 19:39 -11.63086 51.19144 35905 ft 481 kts 334°
2026-04-23 19:39 -11.56989 51.16431 35905 ft 481 kts 334°
2026-04-23 19:40 -11.50859 51.13705 35904 ft 480 kts 334°
2026-04-23 19:40 -11.44720 51.10976 35903 ft 480 kts 334°
2026-04-23 19:41 -11.38600 51.08257 35902 ft 479 kts 334°
2026-04-23 19:41 -11.32479 51.05538 35902 ft 479 kts 334°
2026-04-23 19:42 -11.26397 51.02839 35899 ft 479 kts 334°
2026-04-23 19:42 -11.20278 51.00123 35895 ft 479 kts 334°
2026-04-23 19:43 -11.14162 50.97411 35901 ft 479 kts 334°
2026-04-23 19:43 -11.08047 50.94701 35901 ft 479 kts 334°
2026-04-23 19:44 -11.01933 50.91992 35897 ft 479 kts 334°
2026-04-23 19:44 -10.95822 50.89285 35897 ft 479 kts 334°
2026-04-23 19:45 -10.89703 50.86577 35896 ft 479 kts 334°
2026-04-23 19:45 -10.83620 50.83885 35899 ft 479 kts 334°
2026-04-23 19:46 -10.77500 50.81179 35897 ft 479 kts 334°
2026-04-23 19:46 -10.71384 50.78475 35897 ft 479 kts 334°
2026-04-23 19:47 -10.66294 50.76226 35893 ft 479 kts 334°
2026-04-23 19:47 -10.59169 50.73079 35894 ft 479 kts 334°
2026-04-23 19:48 -10.53037 50.70371 35895 ft 479 kts 334°
2026-04-23 19:48 -10.46915 50.67670 35893 ft 479 kts 334°
2026-04-23 19:49 -10.40778 50.64962 35893 ft 479 kts 334°
2026-04-23 19:49 -10.34667 50.62268 35894 ft 479 kts 334°
2026-04-23 19:50 -10.28586 50.59588 35889 ft 479 kts 334°
2026-04-23 19:50 -10.22463 50.56891 35891 ft 479 kts 334°
2026-04-23 19:51 -10.16358 50.54202 35894 ft 479 kts 334°
2026-04-23 19:51 -10.10208 50.51495 35892 ft 479 kts 334°
2026-04-23 19:52 -10.05114 50.49254 35891 ft 478 kts 334°
2026-04-23 19:52 -9.98031 50.46139 35890 ft 478 kts 334°
2026-04-23 19:53 -9.91920 50.43451 35886 ft 478 kts 334°
2026-04-23 19:53 -9.85808 50.40762 35897 ft 478 kts 334°
2026-04-23 19:54 -9.79693 50.38073 35883 ft 478 kts 335°
2026-04-23 19:54 -9.73621 50.35404 35896 ft 478 kts 335°
2026-04-23 19:55 -9.67528 50.32728 35886 ft 477 kts 335°
2026-04-23 19:55 -9.61445 50.30057 35893 ft 477 kts 335°
2026-04-23 19:56 -9.55352 50.27383 35892 ft 477 kts 335°
2026-04-23 19:56 -9.49244 50.24703 35884 ft 477 kts 335°
2026-04-23 19:57 -9.43143 50.22027 35886 ft 478 kts 335°
2026-04-23 19:57 -9.38068 50.19803 35886 ft 478 kts 335°
2026-04-23 19:58 -9.30956 50.16686 35888 ft 477 kts 335°
2026-04-23 19:58 -9.24863 50.14017 35887 ft 478 kts 335°
2026-04-23 19:59 -9.18762 50.11345 35886 ft 478 kts 335°
2026-04-23 19:59 -9.12652 50.08671 35885 ft 478 kts 335°
2026-04-23 20:00 -9.06580 50.06014 35884 ft 478 kts 335°
2026-04-23 20:00 -9.00482 50.03347 35883 ft 478 kts 335°
2026-04-23 20:01 -8.94357 50.00668 35880 ft 478 kts 335°
2026-04-23 20:01 -8.88245 49.97997 35883 ft 478 kts 335°
2026-04-23 20:02 -8.82175 49.95345 35879 ft 478 kts 335°
2026-04-23 20:02 -8.76040 49.92665 35883 ft 478 kts 335°
2026-04-23 20:03 -8.69945 49.90004 35880 ft 478 kts 335°
2026-04-23 20:03 -8.63817 49.87330 35880 ft 478 kts 335°
2026-04-23 20:04 -8.57709 49.84665 35885 ft 478 kts 335°
2026-04-23 20:04 -8.51613 49.82006 35878 ft 478 kts 335°
2026-04-23 20:05 -8.46551 49.79799 35879 ft 478 kts 335°
2026-04-23 20:05 -8.40450 49.77140 35880 ft 478 kts 335°
2026-04-23 20:06 -8.33315 49.74031 35877 ft 478 kts 335°
2026-04-23 20:06 -8.27241 49.71386 35877 ft 478 kts 335°
2026-04-23 20:07 -8.22150 49.69169 35879 ft 477 kts 335°
2026-04-23 20:07 -8.16064 49.66520 35878 ft 477 kts 335°
2026-04-23 20:08 -8.09975 49.63871 35879 ft 477 kts 335°
2026-04-23 20:08 -8.03877 49.61218 35878 ft 476 kts 335°
2026-04-23 20:09 -7.97797 49.58574 35880 ft 476 kts 335°
2026-04-23 20:09 -7.91732 49.55938 35878 ft 476 kts 335°
2026-04-23 20:10 -7.85658 49.53298 35875 ft 476 kts 335°
2026-04-23 20:10 -7.79594 49.50664 35873 ft 475 kts 335°
2026-04-23 20:11 -7.73505 49.48019 35877 ft 475 kts 335°
2026-04-23 20:11 -7.67411 49.45374 35876 ft 475 kts 335°
2026-04-23 20:12 -7.61342 49.42740 35875 ft 475 kts 335°
2026-04-23 20:12 -7.55275 49.40107 35876 ft 475 kts 335°
2026-04-23 20:13 -7.49221 49.37481 35874 ft 475 kts 335°
2026-04-23 20:13 -7.43146 49.34847 35872 ft 475 kts 335°
2026-04-23 20:14 -7.37061 49.32210 35873 ft 475 kts 335°
2026-04-23 20:14 -7.31013 49.29589 35870 ft 475 kts 335°
2026-04-23 20:15 -7.24942 49.26958 35870 ft 475 kts 335°
2026-04-23 20:15 -7.18845 49.24318 35873 ft 476 kts 335°
2026-04-23 20:16 -7.12776 49.21691 35871 ft 476 kts 335°
2026-04-23 20:16 -7.06695 49.19058 35869 ft 476 kts 335°
2026-04-23 20:17 -7.00610 49.16425 35869 ft 476 kts 335°
2026-04-23 20:17 -6.94532 49.13797 35869 ft 477 kts 335°
2026-04-23 20:18 -6.88446 49.11164 35873 ft 477 kts 335°
2026-04-23 20:18 -6.82317 49.08513 35870 ft 477 kts 335°
2026-04-23 20:19 -6.76218 49.05877 35874 ft 477 kts 335°
2026-04-23 20:19 -6.70129 49.03245 35873 ft 478 kts 335°
2026-04-23 20:20 -6.64025 49.00608 35872 ft 478 kts 335°
2026-04-23 20:20 -6.57924 48.97973 35872 ft 478 kts 335°
2026-04-23 20:21 -6.51827 48.95340 35871 ft 478 kts 335°
2026-04-23 20:21 -6.45687 48.92690 35869 ft 478 kts 335°
2026-04-23 20:22 -6.39603 48.90064 35870 ft 479 kts 335°
2026-04-23 20:22 -6.33468 48.87417 35871 ft 479 kts 335°
2026-04-23 20:23 -6.27337 48.84772 35869 ft 479 kts 335°
2026-04-23 20:23 -6.21234 48.82140 35873 ft 479 kts 335°
2026-04-23 20:24 -6.15099 48.79495 35872 ft 480 kts 335°
2026-04-23 20:24 -6.08963 48.76850 35871 ft 480 kts 335°
2026-04-23 20:25 -6.02838 48.74211 35871 ft 480 kts 335°
2026-04-23 20:25 -5.96706 48.71569 35871 ft 480 kts 335°
2026-04-23 20:26 -5.90546 48.68915 35872 ft 480 kts 335°
2026-04-23 20:26 -5.84395 48.66267 35871 ft 481 kts 335°
2026-04-23 20:27 -5.78257 48.63624 35873 ft 481 kts 335°
2026-04-23 20:27 -5.72097 48.60973 35872 ft 481 kts 335°
2026-04-23 20:28 -5.65971 48.58337 35871 ft 481 kts 335°
2026-04-23 20:28 -5.59822 48.55691 35873 ft 481 kts 335°
2026-04-23 20:29 -5.53685 48.53052 35872 ft 481 kts 335°
2026-04-23 20:29 -5.47542 48.50410 35875 ft 481 kts 335°
2026-04-23 20:30 -5.41402 48.47770 35871 ft 481 kts 335°
2026-04-23 20:30 -5.32135 48.43788 35870 ft 481 kts 335°
2026-04-23 20:31 -5.26014 48.41158 35871 ft 481 kts 335°
2026-04-23 20:31 -5.19847 48.38509 35872 ft 481 kts 335°
2026-04-23 20:32 -5.13708 48.35872 35872 ft 481 kts 335°
2026-04-23 20:32 -5.07546 48.33226 35873 ft 482 kts 335°
2026-04-23 20:33 -5.01375 48.30577 35873 ft 482 kts 335°
2026-04-23 20:33 -4.95207 48.27930 35877 ft 482 kts 335°
2026-04-23 20:34 -4.89033 48.25280 35873 ft 482 kts 335°
2026-04-23 20:34 -4.82876 48.22638 35875 ft 482 kts 336°
2026-04-23 20:35 -4.76695 48.19987 35875 ft 483 kts 336°
2026-04-23 20:35 -4.70525 48.17341 35873 ft 483 kts 336°
2026-04-23 20:36 -4.64349 48.14692 35871 ft 483 kts 336°
2026-04-23 20:36 -4.58177 48.12047 35874 ft 483 kts 336°
2026-04-23 20:37 -4.52001 48.09399 35877 ft 483 kts 336°
2026-04-23 20:37 -4.45815 48.06748 35872 ft 484 kts 336°
2026-04-23 20:38 -4.39639 48.04102 35873 ft 484 kts 336°
2026-04-23 20:38 -4.33447 48.01450 35873 ft 484 kts 336°
2026-04-23 20:39 -4.27266 47.98802 35872 ft 484 kts 336°
2026-04-23 20:39 -4.21058 47.96144 35872 ft 484 kts 336°
2026-04-23 20:40 -4.14881 47.93498 35873 ft 484 kts 336°
2026-04-23 20:40 -4.08656 47.90825 35877 ft 485 kts 336°
2026-04-23 20:41 -4.02465 47.88168 35877 ft 484 kts 336°
2026-04-23 20:41 -3.96263 47.85508 35876 ft 485 kts 336°
2026-04-23 20:42 -3.90058 47.82848 35875 ft 485 kts 336°
2026-04-23 20:42 -3.83887 47.80203 35876 ft 485 kts 336°
2026-04-23 20:43 -3.77698 47.77550 35875 ft 485 kts 336°
2026-04-23 20:43 -3.71455 47.74875 35872 ft 485 kts 336°
2026-04-23 20:44 -3.65287 47.72233 35873 ft 485 kts 336°
2026-04-23 20:44 -3.59076 47.69572 35875 ft 485 kts 336°
2026-04-23 20:45 -3.52895 47.66924 35875 ft 484 kts 336°
2026-04-23 20:45 -3.46686 47.64265 35875 ft 484 kts 336°
2026-04-23 20:46 -3.40495 47.61614 35875 ft 484 kts 336°
2026-04-23 20:46 -3.34317 47.58969 35877 ft 484 kts 336°
2026-04-23 20:47 -3.28113 47.56313 35876 ft 484 kts 336°
2026-04-23 20:47 -3.21946 47.53673 35876 ft 484 kts 336°
2026-04-23 20:48 -3.15747 47.51020 35876 ft 484 kts 336°
2026-04-23 20:48 -3.09569 47.48377 35872 ft 484 kts 336°
2026-04-23 20:49 -3.03367 47.45723 35873 ft 484 kts 336°
2026-04-23 20:49 -2.97164 47.43071 35873 ft 484 kts 336°
2026-04-23 20:50 -2.90978 47.40424 35874 ft 484 kts 336°
2026-04-23 20:50 -2.84780 47.37772 35873 ft 484 kts 336°
2026-04-23 20:51 -2.78613 47.35135 35873 ft 484 kts 335°
2026-04-23 20:51 -2.72408 47.32481 35873 ft 484 kts 335°
2026-04-23 20:52 -2.66216 47.29834 35873 ft 484 kts 335°
2026-04-23 20:52 -2.60011 47.27181 35873 ft 484 kts 335°
2026-04-23 20:53 -2.53841 47.24544 35875 ft 484 kts 335°
2026-04-23 20:53 -2.47645 47.21896 35872 ft 484 kts 335°
2026-04-23 20:54 -2.41441 47.19244 35873 ft 484 kts 335°
2026-04-23 20:54 -2.35256 47.16601 35872 ft 484 kts 335°
2026-04-23 20:55 -2.29077 47.13961 35874 ft 484 kts 335°
2026-04-23 20:55 -2.22876 47.11311 35876 ft 484 kts 335°
2026-04-23 20:56 -2.17698 47.09099 35875 ft 484 kts 335°
2026-04-23 20:56 -2.11514 47.06457 35876 ft 484 kts 335°
2026-04-23 20:57 -2.05333 47.03817 35874 ft 485 kts 335°
2026-04-23 20:57 -1.99142 47.01173 35876 ft 485 kts 335°
2026-04-23 20:58 -1.92934 46.98522 35875 ft 485 kts 335°
2026-04-23 20:58 -1.86718 46.95867 35876 ft 485 kts 335°
2026-04-23 20:59 -1.80522 46.93222 35875 ft 485 kts 335°
2026-04-23 20:59 -1.74294 46.90563 35872 ft 486 kts 335°
2026-04-23 21:00 -1.68084 46.87911 35871 ft 486 kts 335°
2026-04-23 21:00 -1.61848 46.85249 35874 ft 486 kts 335°
2026-04-23 21:01 -1.55648 46.82602 35872 ft 486 kts 335°
2026-04-23 21:01 -1.49418 46.79943 35873 ft 486 kts 335°
2026-04-23 21:02 -1.43199 46.77288 35876 ft 486 kts 335°
2026-04-23 21:02 -1.36997 46.74641 35877 ft 487 kts 335°
2026-04-23 21:03 -1.30781 46.71989 35873 ft 487 kts 335°
2026-04-23 21:03 -1.24554 46.69331 35875 ft 487 kts 335°
2026-04-23 21:04 -1.18317 46.66670 35874 ft 487 kts 335°
2026-04-23 21:04 -1.12069 46.64004 35867 ft 488 kts 335°
2026-04-23 21:05 -1.05827 46.61342 35877 ft 488 kts 335°
2026-04-23 21:05 -0.99574 46.58673 35882 ft 488 kts 335°
2026-04-23 21:06 -0.93352 46.56018 35876 ft 488 kts 335°
2026-04-23 21:06 -0.87114 46.53356 35876 ft 488 kts 335°
2026-04-23 21:07 -0.80875 46.50694 35876 ft 488 kts 335°
2026-04-23 21:07 -0.74606 46.48020 35874 ft 488 kts 335°
2026-04-23 21:08 -0.68333 46.45344 35871 ft 489 kts 335°
2026-04-23 21:08 -0.62112 46.42690 35873 ft 488 kts 335°
2026-04-23 21:09 -0.55866 46.40026 35874 ft 488 kts 335°
2026-04-23 21:09 -0.49619 46.37361 35870 ft 489 kts 335°
2026-04-23 21:10 -0.43386 46.34702 35870 ft 489 kts 335°
2026-04-23 21:10 -0.37138 46.32037 35873 ft 489 kts 335°
2026-04-23 21:11 -0.30863 46.29360 35869 ft 489 kts 335°
2026-04-23 21:11 -0.24636 46.26704 35873 ft 489 kts 335°
2026-04-23 21:12 -0.18383 46.24038 35870 ft 489 kts 335°
2026-04-23 21:12 -0.12146 46.21336 35870 ft 489 kts 335°
2026-04-23 21:13 -0.05900 46.18582 35871 ft 490 kts 335°
2026-04-23 21:13 0.00339 46.15837 35873 ft 490 kts 335°
2026-04-23 21:14 0.06563 46.13109 35869 ft 490 kts 335°
2026-04-23 21:14 0.12825 46.10367 35871 ft 490 kts 335°
2026-04-23 21:15 0.19032 46.07651 35869 ft 490 kts 335°
2026-04-23 21:15 0.25279 46.04916 35870 ft 490 kts 335°
2026-04-23 21:16 0.31549 46.02171 35871 ft 490 kts 335°
2026-04-23 21:16 0.37776 45.99445 35871 ft 490 kts 335°
2026-04-23 21:17 0.44027 45.96708 35872 ft 490 kts 335°
2026-04-23 21:17 0.50259 45.93980 35874 ft 490 kts 335°
2026-04-23 21:18 0.56490 45.91252 35873 ft 490 kts 335°
2026-04-23 21:18 0.62729 45.88562 35872 ft 489 kts 336°
2026-04-23 21:19 0.69011 45.85877 35875 ft 489 kts 336°
2026-04-23 21:19 0.75259 45.83202 35870 ft 489 kts 336°
2026-04-23 21:20 0.81507 45.80521 35874 ft 489 kts 336°
2026-04-23 21:20 0.87726 45.77851 35874 ft 489 kts 336°
2026-04-23 21:21 0.94003 45.75156 35872 ft 489 kts 336°
2026-04-23 21:21 1.00236 45.72479 35871 ft 489 kts 336°
2026-04-23 21:22 1.06489 45.69794 35871 ft 489 kts 336°
2026-04-23 21:22 1.12747 45.67107 35871 ft 489 kts 336°
2026-04-23 21:23 1.18976 45.64433 35871 ft 488 kts 336°
2026-04-23 21:23 1.25210 45.61755 35871 ft 488 kts 336°
2026-04-23 21:24 1.31469 45.59067 35869 ft 488 kts 336°
2026-04-23 21:24 1.37703 45.56390 35871 ft 488 kts 336°
2026-04-23 21:25 1.43934 45.53713 35872 ft 488 kts 336°
2026-04-23 21:25 1.50168 45.51036 35870 ft 488 kts 336°
2026-04-23 21:26 1.56405 45.48357 35870 ft 488 kts 336°
2026-04-23 21:26 1.62610 45.45691 35870 ft 488 kts 336°
2026-04-23 21:27 1.68873 45.43001 35870 ft 488 kts 336°
2026-04-23 21:27 1.75089 45.40330 35869 ft 487 kts 336°
2026-04-23 21:28 1.81335 45.37647 35871 ft 487 kts 336°
2026-04-23 21:28 1.87560 45.34972 35870 ft 488 kts 336°
2026-04-23 21:29 1.93785 45.32296 35870 ft 488 kts 336°
2026-04-23 21:29 2.00035 45.29611 35871 ft 488 kts 336°
2026-04-23 21:30 2.06234 45.26913 35873 ft 488 kts 335°
2026-04-23 21:30 2.12448 45.24143 35876 ft 488 kts 335°
2026-04-23 21:31 2.18647 45.21379 35876 ft 487 kts 335°
2026-04-23 21:31 2.24813 45.18641 35877 ft 487 kts 335°
2026-04-23 21:32 2.31019 45.15891 35875 ft 487 kts 335°
2026-04-23 21:32 2.37212 45.13148 35877 ft 487 kts 335°
2026-04-23 21:33 2.43405 45.10404 35876 ft 486 kts 335°
2026-04-23 21:33 2.49557 45.07677 35876 ft 486 kts 335°
2026-04-23 21:34 2.55748 45.04933 35875 ft 486 kts 336°
2026-04-23 21:34 2.61951 45.02183 35876 ft 486 kts 336°
2026-04-23 21:35 2.68122 44.99447 35878 ft 486 kts 336°
2026-04-23 21:35 2.74296 44.96710 35879 ft 486 kts 336°
2026-04-23 21:36 2.83578 44.92593 35879 ft 487 kts 336°
2026-04-23 21:37 2.89763 44.89850 35881 ft 487 kts 336°
2026-04-23 21:37 2.95980 44.87093 35883 ft 487 kts 336°
2026-04-23 21:38 3.02164 44.84349 35884 ft 487 kts 336°
2026-04-23 21:38 3.08368 44.81597 35883 ft 487 kts 336°
2026-04-23 21:39 3.14528 44.78863 35883 ft 487 kts 336°
2026-04-23 21:39 3.20708 44.76121 35884 ft 486 kts 336°
2026-04-23 21:40 3.26919 44.73364 35886 ft 486 kts 336°
2026-04-23 21:40 3.33079 44.70630 35892 ft 486 kts 336°
2026-04-23 21:41 3.39238 44.67895 35894 ft 486 kts 336°
2026-04-23 21:41 3.45421 44.65149 35895 ft 485 kts 336°
2026-04-23 21:42 3.51603 44.62404 35895 ft 485 kts 336°
2026-04-23 21:42 3.57748 44.59675 35898 ft 485 kts 335°
2026-04-23 21:43 3.63939 44.56924 35899 ft 485 kts 335°
2026-04-23 21:43 3.70091 44.54191 35898 ft 485 kts 335°
2026-04-23 21:44 3.76266 44.51447 35901 ft 485 kts 335°
2026-04-23 21:44 3.82451 44.48698 35901 ft 485 kts 335°
2026-04-23 21:45 3.88620 44.45956 35899 ft 485 kts 335°
2026-04-23 21:45 3.94794 44.43211 35900 ft 485 kts 335°
2026-04-23 21:46 3.99933 44.40926 35900 ft 485 kts 335°
2026-04-23 21:46 4.07093 44.37742 35902 ft 484 kts 335°
2026-04-23 21:47 4.13232 44.35011 35905 ft 484 kts 335°
2026-04-23 21:47 4.18382 44.32720 35905 ft 484 kts 335°
2026-04-23 21:48 4.24512 44.29993 35903 ft 484 kts 335°
2026-04-23 21:48 4.30692 44.27242 35904 ft 484 kts 335°
2026-04-23 21:49 4.36849 44.24502 35905 ft 484 kts 335°
2026-04-23 21:49 4.42959 44.21782 35907 ft 484 kts 335°
2026-04-23 21:50 4.49127 44.19036 35909 ft 484 kts 335°
2026-04-23 21:50 4.55288 44.16292 35908 ft 484 kts 335°
2026-04-23 21:51 4.61396 44.13572 35906 ft 483 kts 335°
2026-04-23 21:51 4.67555 44.10827 35906 ft 483 kts 335°
2026-04-23 21:52 4.73723 44.08079 35899 ft 483 kts 335°
2026-04-23 21:52 4.79855 44.05346 35895 ft 483 kts 335°
2026-04-23 21:53 4.85958 44.02625 35895 ft 483 kts 335°
2026-04-23 21:53 4.92134 43.99872 35890 ft 483 kts 335°
2026-04-23 21:54 4.98235 43.97119 35886 ft 483 kts 335°
2026-04-23 21:54 5.04364 43.94319 35885 ft 482 kts 335°
2026-04-23 21:55 5.10473 43.91532 35886 ft 482 kts 335°
2026-04-23 21:55 5.16558 43.88762 35882 ft 482 kts 335°
2026-04-23 21:56 5.22670 43.85981 35883 ft 482 kts 335°
2026-04-23 21:56 5.28754 43.83213 35882 ft 482 kts 335°
2026-04-23 21:57 5.34881 43.80424 35880 ft 481 kts 335°
2026-04-23 21:57 5.40969 43.77653 35876 ft 481 kts 335°
2026-04-23 21:58 5.47074 43.74873 35876 ft 481 kts 335°
2026-04-23 21:58 5.53153 43.72103 35881 ft 480 kts 335°
2026-04-23 21:59 5.59207 43.69346 35874 ft 480 kts 335°
2026-04-23 21:59 5.65299 43.66569 35875 ft 480 kts 335°
2026-04-23 22:00 5.74459 43.62403 35870 ft 481 kts 335°
2026-04-23 22:00 5.80535 43.59644 35869 ft 480 kts 335°
2026-04-23 22:01 5.86602 43.56888 35869 ft 480 kts 335°
2026-04-23 22:01 5.92702 43.54115 35864 ft 480 kts 335°
2026-04-23 22:02 5.98794 43.51345 35861 ft 480 kts 335°
2026-04-23 22:02 6.04858 43.48588 35866 ft 480 kts 335°
2026-04-23 22:03 6.10949 43.45817 35866 ft 480 kts 335°
2026-04-23 22:03 6.17034 43.43048 35863 ft 480 kts 335°
2026-04-23 22:04 6.23120 43.40278 35864 ft 480 kts 335°
2026-04-23 22:04 6.29188 43.37516 35859 ft 480 kts 335°
2026-04-23 22:05 6.35263 43.34750 35867 ft 479 kts 335°
2026-04-23 22:05 6.41337 43.31983 35878 ft 479 kts 335°
2026-04-23 22:06 6.47395 43.29223 35871 ft 480 kts 335°
2026-04-23 22:06 6.53507 43.26438 35874 ft 480 kts 335°
2026-04-23 22:07 6.59539 43.23688 35879 ft 480 kts 335°
2026-04-23 22:07 6.65642 43.20906 35881 ft 480 kts 335°
2026-04-23 22:08 6.71704 43.18141 35882 ft 480 kts 335°
2026-04-23 22:08 6.77807 43.15357 35885 ft 480 kts 335°
2026-04-23 22:09 6.83864 43.12593 35891 ft 479 kts 335°
2026-04-23 22:09 6.89944 43.09818 35893 ft 479 kts 335°
2026-04-23 22:10 6.95997 43.07054 35899 ft 479 kts 335°
2026-04-23 22:10 7.02106 43.04275 35903 ft 479 kts 335°
2026-04-23 22:11 7.08155 43.01525 35903 ft 479 kts 335°
2026-04-23 22:11 7.14222 42.98765 35906 ft 479 kts 335°
2026-04-23 22:12 7.20303 42.95999 35907 ft 479 kts 335°
2026-04-23 22:12 7.26384 42.93231 35911 ft 479 kts 335°
2026-04-23 22:13 7.32444 42.90472 35914 ft 479 kts 335°
2026-04-23 22:13 7.38527 42.87702 35919 ft 479 kts 335°
2026-04-23 22:14 7.44561 42.84954 35917 ft 479 kts 335°
2026-04-23 22:14 7.50638 42.82185 35916 ft 479 kts 335°
2026-04-23 22:15 7.56709 42.79418 35917 ft 479 kts 335°
2026-04-23 22:15 7.62760 42.76659 35916 ft 479 kts 335°
2026-04-23 22:16 7.68850 42.73881 35917 ft 479 kts 335°
2026-04-23 22:16 7.74905 42.71119 35920 ft 479 kts 335°
2026-04-23 22:17 7.81009 42.68334 35920 ft 479 kts 335°
2026-04-23 22:17 7.87060 42.65571 35923 ft 480 kts 334°
2026-04-23 22:18 7.93149 42.62791 35926 ft 480 kts 334°
2026-04-23 22:18 7.99251 42.60003 35929 ft 480 kts 334°
2026-04-23 22:19 8.05312 42.57234 35934 ft 480 kts 334°
2026-04-23 22:19 8.11383 42.54458 35936 ft 480 kts 334°
2026-04-23 22:20 8.17491 42.51666 35938 ft 480 kts 334°
2026-04-23 22:20 8.23585 42.48879 35941 ft 481 kts 334°
2026-04-23 22:21 8.29666 42.46100 35944 ft 481 kts 335°
2026-04-23 22:21 8.35732 42.43328 35950 ft 481 kts 335°
2026-04-23 22:22 8.41853 42.40529 35953 ft 481 kts 335°
2026-04-23 22:22 8.47951 42.37748 35955 ft 482 kts 335°
2026-04-23 22:23 8.54047 42.34965 35955 ft 482 kts 335°
2026-04-23 22:23 8.60179 42.32164 35962 ft 483 kts 335°
2026-04-23 22:24 8.66311 42.29363 35963 ft 484 kts 335°
2026-04-23 22:24 8.72430 42.26568 35966 ft 485 kts 335°
2026-04-23 22:25 8.78569 42.23762 35969 ft 485 kts 334°
2026-04-23 22:25 8.84714 42.20952 35974 ft 485 kts 334°
2026-04-23 22:26 8.90871 42.18136 35981 ft 486 kts 334°
2026-04-23 22:26 8.97045 42.15311 35982 ft 486 kts 334°
2026-04-23 22:27 9.03204 42.12492 35990 ft 486 kts 334°
2026-04-23 22:27 9.09375 42.09666 35990 ft 486 kts 334°
2026-04-23 22:28 9.15538 42.06843 35996 ft 486 kts 334°
2026-04-23 22:28 9.21695 42.04021 35999 ft 486 kts 334°
2026-04-23 22:29 9.27845 42.01201 36001 ft 486 kts 334°
2026-04-23 22:29 9.34004 41.98377 35991 ft 486 kts 334°
2026-04-23 22:30 9.40170 41.95548 35983 ft 486 kts 334°
2026-04-23 22:30 9.46303 41.92733 35970 ft 485 kts 334°
2026-04-23 22:31 9.52469 41.89902 35955 ft 485 kts 334°
2026-04-23 22:31 9.58579 41.87096 35936 ft 485 kts 334°
2026-04-23 22:32 9.64755 41.84258 35915 ft 485 kts 334°
2026-04-23 22:32 9.70839 41.81292 35899 ft 484 kts 331°
2026-04-23 22:33 9.76800 41.78224 35881 ft 484 kts 331°
2026-04-23 22:33 9.82834 41.75134 35867 ft 483 kts 331°
2026-04-23 22:34 9.88845 41.72088 35859 ft 483 kts 332°
2026-04-23 22:34 9.94843 41.69062 35845 ft 483 kts 331°
2026-04-23 22:35 10.00869 41.66021 35840 ft 483 kts 331°
2026-04-23 22:35 10.06882 41.62984 35837 ft 482 kts 331°
2026-04-23 22:36 10.11882 41.60457 35835 ft 482 kts 331°
2026-04-23 22:36 10.17894 41.57417 35839 ft 482 kts 331°
2026-04-23 22:37 10.23899 41.54379 35838 ft 482 kts 331°
2026-04-23 22:37 10.29870 41.51358 35831 ft 482 kts 331°
2026-04-23 22:38 10.35872 41.48319 35832 ft 482 kts 331°
2026-04-23 22:38 10.41860 41.45286 35833 ft 481 kts 331°
2026-04-23 22:39 10.47883 41.42235 35830 ft 481 kts 331°
2026-04-23 22:39 10.53836 41.39217 35829 ft 481 kts 331°
2026-04-23 22:40 10.59841 41.36172 35829 ft 481 kts 331°
2026-04-23 22:41 10.68789 41.31632 35823 ft 480 kts 330°
2026-04-23 22:41 10.74779 41.28590 35826 ft 480 kts 330°
2026-04-23 22:42 10.80759 41.25553 35816 ft 480 kts 330°
2026-04-23 22:42 10.86742 41.22513 35821 ft 480 kts 330°
2026-04-23 22:43 10.92701 41.19483 35812 ft 480 kts 330°
2026-04-23 22:43 10.98685 41.16440 35814 ft 479 kts 330°
2026-04-23 22:44 11.04647 41.13406 35814 ft 479 kts 330°
2026-04-23 22:44 11.10574 41.10389 35811 ft 479 kts 330°
2026-04-23 22:45 11.16561 41.07339 35812 ft 479 kts 330°
2026-04-23 22:45 11.22542 41.04291 35810 ft 479 kts 330°
2026-04-23 22:46 11.28484 41.01262 35810 ft 479 kts 330°
2026-04-23 22:46 11.34425 40.98233 35795 ft 479 kts 330°
2026-04-23 22:47 11.40383 40.95193 35806 ft 479 kts 330°
2026-04-23 22:47 11.46367 40.92137 35806 ft 481 kts 330°
2026-04-23 22:48 11.52352 40.89081 35805 ft 481 kts 330°
2026-04-23 22:48 11.58337 40.86023 35811 ft 481 kts 330°
2026-04-23 22:49 11.64284 40.82984 35814 ft 481 kts 330°
2026-04-23 22:49 11.70264 40.79925 35799 ft 481 kts 330°
2026-04-23 22:50 11.76260 40.76857 35808 ft 480 kts 330°
2026-04-23 22:50 11.82241 40.73794 35824 ft 481 kts 330°
2026-04-23 22:51 11.88211 40.70735 35831 ft 481 kts 330°
2026-04-23 22:51 11.94195 40.67669 35820 ft 482 kts 330°
2026-04-23 22:52 12.00177 40.64602 35839 ft 482 kts 330°
2026-04-23 22:52 12.06202 40.61511 35826 ft 483 kts 330°
2026-04-23 22:53 12.12202 40.58432 35841 ft 483 kts 330°
2026-04-23 22:53 12.18188 40.55358 35843 ft 483 kts 330°
2026-04-23 22:54 12.24207 40.52266 35826 ft 483 kts 330°
2026-04-23 22:54 12.30196 40.49187 35837 ft 483 kts 330°
2026-04-23 22:55 12.36215 40.46092 35836 ft 483 kts 330°
2026-04-23 22:55 12.42208 40.43008 35820 ft 483 kts 330°
2026-04-23 22:56 12.47952 40.39501 35814 ft 479 kts 322°
2026-04-23 22:56 12.53430 40.35565 35817 ft 479 kts 321°
2026-04-23 22:57 12.58822 40.31593 35834 ft 479 kts 321°
2026-04-23 22:57 12.64238 40.27600 35826 ft 479 kts 321°
2026-04-23 22:58 12.69632 40.23636 35833 ft 479 kts 321°
2026-04-23 22:58 12.75031 40.19672 35842 ft 478 kts 321°
2026-04-23 22:59 12.80459 40.15686 35843 ft 478 kts 321°
2026-04-23 22:59 12.85843 40.11730 35853 ft 478 kts 321°
2026-04-23 23:00 12.91242 40.07760 35860 ft 477 kts 321°
2026-04-23 23:00 12.96641 40.03783 35868 ft 476 kts 321°
2026-04-23 23:01 13.02001 39.99838 35874 ft 476 kts 321°
2026-04-23 23:01 13.07367 39.95888 35888 ft 476 kts 320°
2026-04-23 23:02 13.12759 39.91911 35897 ft 476 kts 320°
2026-04-23 23:02 13.18135 39.87949 35911 ft 475 kts 320°
2026-04-23 23:03 13.23483 39.84006 35918 ft 475 kts 320°
2026-04-23 23:03 13.28870 39.80030 35931 ft 475 kts 320°
2026-04-23 23:04 13.34202 39.76093 35935 ft 475 kts 320°
2026-04-23 23:04 13.39551 39.72139 35949 ft 474 kts 320°
2026-04-23 23:05 13.44899 39.68184 35956 ft 474 kts 320°
2026-04-23 23:05 13.50274 39.64208 35968 ft 474 kts 320°
2026-04-23 23:06 13.55605 39.60262 35974 ft 474 kts 320°
2026-04-23 23:06 13.60963 39.56293 35977 ft 474 kts 320°
2026-04-23 23:07 13.66322 39.52322 35986 ft 474 kts 320°
2026-04-23 23:07 13.71648 39.48373 35985 ft 474 kts 320°
2026-04-23 23:08 13.76992 39.44409 35989 ft 474 kts 320°
2026-04-23 23:08 13.82334 39.40444 35988 ft 474 kts 320°
2026-04-23 23:09 13.87655 39.36491 35984 ft 473 kts 320°
2026-04-23 23:09 13.93015 39.32508 35986 ft 473 kts 320°
2026-04-23 23:10 13.98352 39.28539 35983 ft 474 kts 319°
2026-04-23 23:10 14.03668 39.24579 35981 ft 474 kts 319°
2026-04-23 23:11 14.09043 39.20578 35979 ft 474 kts 319°
2026-04-23 23:11 14.14382 39.16603 35980 ft 474 kts 319°
2026-04-23 23:12 14.19700 39.12639 35977 ft 474 kts 319°
2026-04-23 23:12 14.25061 39.08641 35971 ft 474 kts 319°
2026-04-23 23:13 14.30389 39.04664 35973 ft 474 kts 319°
2026-04-23 23:13 14.35724 39.00681 35971 ft 474 kts 319°
2026-04-23 23:14 14.41081 38.96678 35965 ft 474 kts 319°
2026-04-23 23:14 14.46532 38.92844 35965 ft 479 kts 326°
2026-04-23 23:15 14.52828 38.90421 35956 ft 492 kts 343°
2026-04-23 23:15 14.59752 38.89897 35939 ft 502 kts 353°
2026-04-23 23:16 14.66715 38.89916 35943 ft 504 kts 355°
2026-04-23 23:16 14.73741 38.89994 35943 ft 504 kts 354°
2026-04-23 23:17 14.80717 38.90032 35942 ft 503 kts 354°
2026-04-23 23:17 14.87729 38.90043 35944 ft 504 kts 354°
2026-04-23 23:18 14.94737 38.90048 35948 ft 503 kts 354°
2026-04-23 23:18 15.01751 38.90054 35944 ft 503 kts 354°
2026-04-23 23:19 15.08752 38.90061 35941 ft 503 kts 354°
2026-04-23 23:19 15.15714 38.90069 35938 ft 502 kts 354°
2026-04-23 23:20 15.22698 38.90076 35936 ft 502 kts 354°
2026-04-23 23:20 15.29682 38.90086 35920 ft 503 kts 354°
2026-04-23 23:21 15.36702 38.90284 35921 ft 504 kts 356°
2026-04-23 23:21 15.43719 38.90589 35905 ft 505 kts 356°
2026-04-23 23:22 15.50718 38.90874 35900 ft 505 kts 355°
2026-04-23 23:22 15.57728 38.91140 35892 ft 502 kts 355°
2026-04-23 23:23 15.64734 38.91384 35887 ft 504 kts 355°
2026-04-23 23:23 15.71715 38.91632 35869 ft 504 kts 355°
2026-04-23 23:24 15.78765 38.91886 35855 ft 505 kts 355°
2026-04-23 23:24 15.85752 38.92138 35856 ft 505 kts 355°
2026-04-23 23:25 15.91602 38.92348 35852 ft 505 kts 355°
2026-04-23 23:25 15.98663 38.92599 35849 ft 505 kts 355°
2026-04-23 23:26 16.05667 38.92850 35833 ft 505 kts 355°
2026-04-23 23:26 16.12669 38.93106 35832 ft 505 kts 355°
2026-04-23 23:27 16.19723 38.93363 35825 ft 505 kts 355°
2026-04-23 23:27 16.26749 38.93618 35820 ft 506 kts 355°
2026-04-23 23:28 16.33784 38.93872 35823 ft 506 kts 355°
2026-04-23 23:28 16.40809 38.94125 35819 ft 507 kts 355°
2026-04-23 23:29 16.47885 38.94380 35818 ft 507 kts 355°
2026-04-23 23:29 16.54873 38.94635 35872 ft 506 kts 355°
2026-04-23 23:29 16.58413 38.94764 36198 ft 503 kts 355°
2026-04-23 23:30 16.61881 38.94893 36570 ft 499 kts 355°
2026-04-23 23:30 16.65326 38.95020 36882 ft 497 kts 354°
2026-04-23 23:30 16.68795 38.95146 37124 ft 496 kts 354°
2026-04-23 23:30 16.72258 38.95270 37371 ft 495 kts 354°
2026-04-23 23:31 16.75702 38.95394 37612 ft 494 kts 354°
2026-04-23 23:31 16.79134 38.95518 37784 ft 495 kts 354°
2026-04-23 23:31 16.82544 38.95639 37813 ft 498 kts 354°
2026-04-23 23:32 16.89495 38.95888 37807 ft 500 kts 354°
2026-04-23 23:32 16.96448 38.96143 37803 ft 500 kts 354°
2026-04-23 23:33 17.03401 38.96398 37806 ft 500 kts 354°
2026-04-23 23:33 17.10366 38.96652 37801 ft 500 kts 354°
2026-04-23 23:34 17.17316 38.96905 37801 ft 500 kts 354°
2026-04-23 23:34 17.24252 38.97159 37799 ft 500 kts 354°
2026-04-23 23:35 17.31237 38.97414 37800 ft 500 kts 354°
2026-04-23 23:35 17.38170 38.97668 37797 ft 500 kts 354°
2026-04-23 23:36 17.45128 38.97924 37795 ft 500 kts 354°
2026-04-23 23:36 17.52065 38.98175 37796 ft 500 kts 354°
2026-04-23 23:37 17.59031 38.98421 37797 ft 501 kts 354°
2026-04-23 23:37 17.66024 38.98669 37793 ft 501 kts 354°
2026-04-23 23:38 17.72975 38.98919 37794 ft 501 kts 354°
2026-04-23 23:38 17.79940 38.99169 37788 ft 501 kts 354°
2026-04-23 23:39 17.86902 38.99420 37785 ft 501 kts 354°
2026-04-23 23:39 17.93878 38.99671 37786 ft 501 kts 354°
2026-04-23 23:40 18.00820 38.99921 37792 ft 501 kts 354°
2026-04-23 23:40 18.07834 39.00174 37790 ft 501 kts 354°
2026-04-23 23:41 18.14802 39.00425 37788 ft 502 kts 354°
2026-04-23 23:41 18.21761 39.00719 37788 ft 503 kts 355°
2026-04-23 23:42 18.28755 39.01122 37798 ft 503 kts 355°
2026-04-23 23:42 18.35729 39.01532 37798 ft 504 kts 355°
2026-04-23 23:43 18.42733 39.01929 37790 ft 504 kts 354°
2026-04-23 23:43 18.49753 39.02317 37789 ft 504 kts 354°
2026-04-23 23:44 18.56720 39.02702 37789 ft 504 kts 354°
2026-04-23 23:44 18.63746 39.03090 37790 ft 504 kts 354°
2026-04-23 23:45 18.70779 39.03480 37788 ft 505 kts 354°
2026-04-23 23:45 18.77751 39.03867 37792 ft 505 kts 354°
2026-04-23 23:46 18.84758 39.04256 37789 ft 505 kts 354°
2026-04-23 23:46 18.91777 39.04646 37792 ft 505 kts 354°
2026-04-23 23:47 18.98813 39.05037 37788 ft 506 kts 354°
2026-04-23 23:47 19.05848 39.05429 37787 ft 506 kts 354°
2026-04-23 23:48 19.12831 39.05403 37783 ft 492 kts 343°
2026-04-23 23:48 19.19431 39.03905 37788 ft 483 kts 336°
2026-04-23 23:49 19.29138 39.01132 37785 ft 482 kts 335°
2026-04-23 23:49 19.35578 38.99262 37784 ft 482 kts 335°
2026-04-23 23:50 19.42059 38.97402 37788 ft 483 kts 336°
2026-04-23 23:50 19.48590 38.95537 37782 ft 483 kts 335°
2026-04-23 23:51 19.55062 38.93690 37785 ft 484 kts 335°
2026-04-23 23:51 19.61552 38.91835 37788 ft 484 kts 335°
2026-04-23 23:52 19.68054 38.89975 37789 ft 484 kts 335°
2026-04-23 23:52 19.74593 38.88102 37788 ft 485 kts 335°
2026-04-23 23:53 19.81105 38.86235 37788 ft 485 kts 335°
2026-04-23 23:53 19.87592 38.84374 37786 ft 485 kts 335°
2026-04-23 23:54 19.94088 38.82509 37791 ft 485 kts 335°
2026-04-23 23:54 20.00650 38.80623 37790 ft 486 kts 335°
2026-04-23 23:55 20.07127 38.78760 37788 ft 486 kts 335°
2026-04-23 23:55 20.13656 38.76880 37783 ft 486 kts 335°
2026-04-23 23:56 20.20201 38.74995 37789 ft 486 kts 335°
2026-04-23 23:56 20.26706 38.73119 37786 ft 486 kts 335°
2026-04-23 23:57 20.33229 38.71236 37789 ft 486 kts 335°
2026-04-23 23:57 20.39754 38.69351 37785 ft 486 kts 335°
2026-04-23 23:58 20.46298 38.67459 37786 ft 485 kts 335°
2026-04-23 23:58 20.52771 38.65586 37788 ft 485 kts 334°
2026-04-23 23:59 20.59322 38.63688 37789 ft 485 kts 334°
2026-04-23 23:59 20.65821 38.61804 37790 ft 485 kts 334°
2026-04-24 00:00 20.72339 38.59912 37786 ft 485 kts 334°
2026-04-24 00:00 20.78925 38.58137 37787 ft 495 kts 340°
2026-04-24 00:01 20.82385 38.57774 37789 ft 508 kts 349°
2026-04-24 00:01 20.85962 38.58014 37785 ft 523 kts 359°
2026-04-24 00:01 20.89517 38.58942 37784 ft 539 kts 11°
2026-04-24 00:01 20.92974 38.60605 37794 ft 552 kts 21°
2026-04-24 00:02 20.99636 38.64816 37782 ft 559 kts 25°
2026-04-24 00:02 21.06213 38.69253 37784 ft 560 kts 25°
2026-04-24 00:03 21.12839 38.73694 37778 ft 560 kts 24°
2026-04-24 00:03 21.19468 38.78078 37778 ft 560 kts 24°
2026-04-24 00:04 21.26111 38.82451 37775 ft 561 kts 24°
2026-04-24 00:04 21.32747 38.86824 37771 ft 562 kts 24°
2026-04-24 00:05 21.39396 38.91211 37773 ft 563 kts 24°
2026-04-24 00:05 21.46067 38.95620 37768 ft 564 kts 24°
2026-04-24 00:06 21.52742 39.00039 37757 ft 564 kts 24°
2026-04-24 00:06 21.59455 39.04486 37751 ft 565 kts 24°
2026-04-24 00:07 21.66294 39.08334 37748 ft 548 kts
2026-04-24 00:07 21.69950 39.09373 37751 ft 532 kts 359°
2026-04-24 00:07 21.73562 39.09691 37750 ft 514 kts 347°
2026-04-24 00:08 21.77058 39.09328 37750 ft 496 kts 337°
2026-04-24 00:08 21.80342 39.08356 37758 ft 481 kts 328°
2026-04-24 00:08 21.86517 39.05776 37747 ft 478 kts 326°
2026-04-24 00:09 21.92651 39.03015 37760 ft 477 kts 326°
2026-04-24 00:09 21.98773 39.00277 37780 ft 478 kts 326°
2026-04-24 00:10 22.04941 38.97558 37772 ft 478 kts 326°
2026-04-24 00:10 22.11101 38.94857 37775 ft 478 kts 326°
2026-04-24 00:11 22.17251 38.92158 37779 ft 478 kts 326°
2026-04-24 00:11 22.23407 38.89453 37777 ft 478 kts 326°
2026-04-24 00:12 22.29580 38.86736 37778 ft 478 kts 326°
2026-04-24 00:12 22.35733 38.84026 37782 ft 478 kts 326°
2026-04-24 00:13 22.41899 38.81306 37779 ft 478 kts 326°
2026-04-24 00:13 22.48046 38.78593 37783 ft 478 kts 326°
2026-04-24 00:14 22.54202 38.75874 37782 ft 479 kts 326°
2026-04-24 00:14 22.60368 38.73148 37784 ft 479 kts 326°
2026-04-24 00:15 22.65530 38.70864 37773 ft 479 kts 326°
2026-04-24 00:15 22.71678 38.68142 37783 ft 478 kts 326°
2026-04-24 00:16 22.77842 38.65406 37792 ft 478 kts 326°
2026-04-24 00:16 22.83992 38.62674 37792 ft 478 kts 326°
2026-04-24 00:17 22.90166 38.59929 37797 ft 478 kts 326°
2026-04-24 00:17 22.96324 38.57190 37795 ft 478 kts 326°
2026-04-24 00:18 23.02448 38.54462 37792 ft 478 kts 326°
2026-04-24 00:18 23.08632 38.51706 37796 ft 479 kts 326°
2026-04-24 00:19 23.14757 38.48972 37792 ft 479 kts 326°
2026-04-24 00:19 23.20939 38.46211 37797 ft 479 kts 326°
2026-04-24 00:20 23.27083 38.43464 37797 ft 479 kts 326°
2026-04-24 00:20 23.33247 38.40706 37797 ft 480 kts 326°
2026-04-24 00:21 23.39442 38.37930 37800 ft 480 kts 326°
2026-04-24 00:21 23.45607 38.35166 37798 ft 480 kts 326°
2026-04-24 00:22 23.51773 38.32398 37797 ft 481 kts 326°
2026-04-24 00:22 23.57958 38.29618 37793 ft 481 kts 326°
2026-04-24 00:23 23.64143 38.26836 37791 ft 482 kts 326°
2026-04-24 00:23 23.70346 38.24049 37788 ft 482 kts 326°
2026-04-24 00:24 23.76545 38.21251 37794 ft 482 kts 326°
2026-04-24 00:24 23.82742 38.18450 37780 ft 483 kts 326°
2026-04-24 00:25 23.88928 38.15655 37749 ft 483 kts 326°
2026-04-24 00:25 23.95174 38.12829 37734 ft 483 kts 326°
2026-04-24 00:26 24.01402 38.10010 37698 ft 484 kts 326°
2026-04-24 00:26 24.07589 38.07206 37695 ft 484 kts 326°
2026-04-24 00:27 24.13784 38.04316 37693 ft 478 kts 321°
2026-04-24 00:27 24.19350 38.00601 37692 ft 466 kts 315°
2026-04-24 00:28 24.24703 37.96624 37699 ft 465 kts 314°
2026-04-24 00:28 24.30048 37.92579 37708 ft 465 kts 314°
2026-04-24 00:29 24.35351 37.88575 37717 ft 466 kts 314°
2026-04-24 00:29 24.40717 37.84536 37733 ft 466 kts 314°
2026-04-24 00:30 24.46070 37.80509 37745 ft 467 kts 314°
2026-04-24 00:30 24.51433 37.76472 37749 ft 467 kts 314°
2026-04-24 00:31 24.56767 37.72451 37753 ft 467 kts 314°
2026-04-24 00:31 24.62110 37.68418 37757 ft 467 kts 314°
2026-04-24 00:32 24.67481 37.64360 37761 ft 467 kts 314°
2026-04-24 00:32 24.72845 37.60302 37765 ft 467 kts 314°
2026-04-24 00:33 24.78192 37.56252 37766 ft 467 kts 314°
2026-04-24 00:33 24.83548 37.52192 37772 ft 467 kts 314°
2026-04-24 00:34 24.88894 37.48135 37771 ft 467 kts 314°
2026-04-24 00:34 24.94226 37.44082 37776 ft 468 kts 314°
2026-04-24 00:35 24.99583 37.40007 37764 ft 468 kts 314°
2026-04-24 00:35 25.04934 37.35933 37768 ft 468 kts 314°
2026-04-24 00:36 25.10299 37.31845 37774 ft 468 kts 314°
2026-04-24 00:36 25.15672 37.27745 37774 ft 468 kts 314°
2026-04-24 00:37 25.21024 37.23657 37772 ft 468 kts 314°
2026-04-24 00:37 25.26381 37.19561 37773 ft 468 kts 314°
2026-04-24 00:38 25.31718 37.15481 37765 ft 468 kts 314°
2026-04-24 00:38 25.37049 37.11393 37762 ft 468 kts 314°
2026-04-24 00:39 25.42429 37.07266 37754 ft 468 kts 314°
2026-04-24 00:39 25.47761 37.03167 37752 ft 468 kts 314°
2026-04-24 00:40 25.53088 36.99067 37752 ft 468 kts 314°
2026-04-24 00:40 25.58420 36.94958 37749 ft 468 kts 314°
2026-04-24 00:41 25.63763 36.90839 37749 ft 468 kts 314°
2026-04-24 00:41 25.69110 36.86713 37755 ft 468 kts 314°
2026-04-24 00:42 25.74482 36.82567 37753 ft 469 kts 314°
2026-04-24 00:42 25.79809 36.78446 37756 ft 469 kts 314°
2026-04-24 00:43 25.85172 36.74291 37756 ft 469 kts 314°
2026-04-24 00:43 25.90515 36.70148 37756 ft 470 kts 314°
2026-04-24 00:44 25.95901 36.65968 37752 ft 470 kts 314°
2026-04-24 00:44 26.01268 36.61798 37753 ft 471 kts 314°
2026-04-24 00:45 26.06600 36.57651 37752 ft 471 kts 314°
2026-04-24 00:45 26.11991 36.53453 37749 ft 472 kts 314°
2026-04-24 00:46 26.17296 36.49193 37758 ft 465 kts 309°
2026-04-24 00:46 26.21894 36.44306 37745 ft 457 kts 304°
2026-04-24 00:47 26.26344 36.39208 37748 ft 456 kts 303°
2026-04-24 00:47 26.30724 36.34121 37750 ft 457 kts 303°
2026-04-24 00:48 26.35134 36.29011 37751 ft 458 kts 303°
2026-04-24 00:48 26.39550 36.23905 37743 ft 458 kts 303°
2026-04-24 00:49 26.43992 36.18770 37743 ft 459 kts 303°
2026-04-24 00:49 26.48413 36.13653 37741 ft 458 kts 303°
2026-04-24 00:50 26.52830 36.08534 37744 ft 458 kts 303°
2026-04-24 00:50 26.57248 36.03407 37748 ft 458 kts 303°
2026-04-24 00:51 26.61666 35.98272 37746 ft 458 kts 303°
2026-04-24 00:51 26.66083 35.93134 37755 ft 458 kts 303°
2026-04-24 00:52 26.70460 35.88036 37758 ft 457 kts 303°
2026-04-24 00:52 26.74883 35.82877 37743 ft 458 kts 303°
2026-04-24 00:53 26.79274 35.77752 37750 ft 458 kts 303°
2026-04-24 00:53 26.83678 35.72606 37751 ft 458 kts 303°
2026-04-24 00:54 26.88075 35.67460 37752 ft 458 kts 303°
2026-04-24 00:54 26.92476 35.62304 37752 ft 458 kts 303°
2026-04-24 00:55 26.96897 35.57119 37752 ft 458 kts 303°
2026-04-24 00:55 27.01290 35.51960 37752 ft 458 kts 303°
2026-04-24 00:56 27.05684 35.46794 37753 ft 458 kts 303°
2026-04-24 00:56 27.10063 35.41639 37754 ft 458 kts 303°
2026-04-24 00:57 27.14444 35.36476 37759 ft 457 kts 303°
2026-04-24 00:58 27.21038 35.28693 37760 ft 457 kts 303°
2026-04-24 00:58 27.25404 35.23532 37757 ft 457 kts 303°
2026-04-24 00:59 27.29761 35.18375 37758 ft 456 kts 303°
2026-04-24 00:59 27.34140 35.13185 37759 ft 456 kts 303°
2026-04-24 01:00 27.38496 35.08017 37763 ft 455 kts 303°
2026-04-24 01:00 27.42845 35.02849 37765 ft 455 kts 303°
2026-04-24 01:01 27.47192 34.97678 37767 ft 454 kts 303°
2026-04-24 01:01 27.51513 34.92532 37765 ft 454 kts 303°
2026-04-24 01:02 27.56063 34.87521 37765 ft 459 kts 307°
2026-04-24 01:02 27.60778 34.82672 37769 ft 460 kts 308°
2026-04-24 01:03 27.65483 34.77793 37777 ft 459 kts 307°
2026-04-24 01:03 27.70143 34.72883 37784 ft 459 kts 307°
2026-04-24 01:04 27.74023 34.68768 37782 ft 459 kts 307°
2026-04-24 01:04 27.78675 34.63824 37787 ft 459 kts 307°
2026-04-24 01:05 27.83319 34.58886 37794 ft 459 kts 307°
2026-04-24 01:05 27.87957 34.53951 37803 ft 459 kts 307°
2026-04-24 01:06 27.92586 34.49020 37795 ft 459 kts 307°
2026-04-24 01:06 27.97233 34.44071 37803 ft 459 kts 307°
2026-04-24 01:07 28.01553 34.38886 37802 ft 450 kts 301°
2026-04-24 01:07 28.05570 34.33421 37807 ft 450 kts 300°
2026-04-24 01:08 28.09505 34.27956 37805 ft 451 kts 300°
2026-04-24 01:08 28.13466 34.22447 37815 ft 450 kts 300°
2026-04-24 01:09 28.17424 34.16944 37823 ft 451 kts 300°
2026-04-24 01:09 28.21384 34.11438 37847 ft 451 kts 300°
2026-04-24 01:10 28.25352 34.05926 37853 ft 451 kts 300°
2026-04-24 01:10 28.29313 34.00407 37861 ft 451 kts 301°
2026-04-24 01:11 28.33285 33.94873 37862 ft 450 kts 301°
2026-04-24 01:11 28.37217 33.89382 37866 ft 451 kts 300°
2026-04-24 01:12 28.41185 33.83834 37871 ft 450 kts 300°
2026-04-24 01:12 28.45128 33.78313 37863 ft 450 kts 300°
2026-04-24 01:13 28.49050 33.72816 37867 ft 450 kts 300°
2026-04-24 01:13 28.53006 33.67266 37869 ft 450 kts 301°
2026-04-24 01:14 28.56947 33.61731 37871 ft 450 kts 301°
2026-04-24 01:14 28.60883 33.56207 37874 ft 449 kts 301°
2026-04-24 01:15 28.64806 33.50707 37857 ft 449 kts 301°
2026-04-24 01:15 28.68735 33.45166 37861 ft 448 kts 300°
2026-04-24 01:16 28.72644 33.39635 37865 ft 448 kts 300°
2026-04-24 01:16 28.76545 33.34114 37862 ft 448 kts 301°
2026-04-24 01:17 28.80430 33.28612 37866 ft 448 kts 301°
2026-04-24 01:17 28.84339 33.23070 37862 ft 448 kts 301°
2026-04-24 01:18 28.88249 33.17519 37863 ft 448 kts 301°
2026-04-24 01:18 28.92139 33.11988 37865 ft 448 kts 301°
2026-04-24 01:19 28.96044 33.06429 37870 ft 448 kts 301°
2026-04-24 01:19 28.99948 33.00864 37872 ft 448 kts 301°
2026-04-24 01:20 29.03833 32.95318 37875 ft 449 kts 301°
2026-04-24 01:20 29.07750 32.89719 37877 ft 449 kts 301°
2026-04-24 01:21 29.11635 32.84160 37872 ft 449 kts 301°
2026-04-24 01:21 29.15547 32.78554 37880 ft 449 kts 301°
2026-04-24 01:22 29.19438 32.72969 37884 ft 449 kts 301°
2026-04-24 01:22 29.23330 32.67377 37892 ft 449 kts 301°
2026-04-24 01:23 29.27218 32.61783 37891 ft 450 kts 301°
2026-04-24 01:23 29.31106 32.56162 37891 ft 449 kts 301°
2026-04-24 01:24 29.34975 32.50521 37895 ft 449 kts 301°
2026-04-24 01:24 29.38807 32.44924 37899 ft 449 kts 301°
2026-04-24 01:25 29.42680 32.39267 37903 ft 449 kts 301°
2026-04-24 01:25 29.46546 32.33615 37909 ft 449 kts 301°
2026-04-24 01:26 29.50395 32.27980 37907 ft 449 kts 301°
2026-04-24 01:26 29.54223 32.22370 37908 ft 448 kts 301°
2026-04-24 01:27 29.58084 32.16701 37909 ft 448 kts 301°
2026-04-24 01:27 29.61903 32.11084 37913 ft 449 kts 301°
2026-04-24 01:28 29.65744 32.05431 37912 ft 449 kts 301°
2026-04-24 01:28 29.69584 31.99771 37915 ft 449 kts 301°
2026-04-24 01:29 29.73421 31.94109 37913 ft 449 kts 301°
2026-04-24 01:29 29.77245 31.88458 37911 ft 448 kts 301°
2026-04-24 01:30 29.81036 31.82767 37907 ft 447 kts 300°
2026-04-24 01:30 29.84691 31.77031 37906 ft 447 kts 300°
2026-04-24 01:31 29.88368 31.71233 37910 ft 447 kts 300°
2026-04-24 01:31 29.92059 31.65445 37906 ft 447 kts 300°
2026-04-24 01:32 29.95777 31.59688 37907 ft 448 kts 301°
2026-04-24 01:32 29.99486 31.53962 37909 ft 448 kts 301°
2026-04-24 01:33 30.03233 31.48164 37913 ft 448 kts 301°
2026-04-24 01:33 30.06947 31.42404 37912 ft 448 kts 301°
2026-04-24 01:34 30.11049 31.36963 37914 ft 455 kts 309°
2026-04-24 01:34 30.15673 31.31879 37914 ft 457 kts 310°
2026-04-24 01:35 30.20325 31.26909 37900 ft 457 kts 311°
2026-04-24 01:35 30.25001 31.21912 37926 ft 457 kts 310°
2026-04-24 01:36 30.29649 31.16917 37916 ft 456 kts 310°
2026-04-24 01:36 30.34279 31.11925 37927 ft 456 kts 310°
2026-04-24 01:37 30.38898 31.06937 37931 ft 455 kts 310°
2026-04-24 01:37 30.43535 31.01922 37937 ft 454 kts 310°
2026-04-24 01:38 30.48164 30.96910 37938 ft 454 kts 310°
2026-04-24 01:38 30.52752 30.91936 37939 ft 453 kts 310°
2026-04-24 01:39 30.57340 30.86955 37940 ft 452 kts 310°
2026-04-24 01:39 30.61947 30.81946 37940 ft 451 kts 310°
2026-04-24 01:40 30.66521 30.76968 37941 ft 450 kts 310°
2026-04-24 01:40 30.71063 30.72016 37942 ft 450 kts 310°
2026-04-24 01:41 30.75641 30.67019 37937 ft 449 kts 310°
2026-04-24 01:41 30.80185 30.62052 37939 ft 448 kts 310°
2026-04-24 01:42 30.84712 30.57096 37933 ft 447 kts 310°
2026-04-24 01:42 30.89234 30.52140 37932 ft 447 kts 310°
2026-04-24 01:43 30.93751 30.47182 37932 ft 446 kts 310°
2026-04-24 01:43 30.98283 30.42202 37918 ft 446 kts 310°
2026-04-24 01:44 31.02788 30.37243 37941 ft 445 kts 310°
2026-04-24 01:44 31.07290 30.32290 37922 ft 446 kts 311°
2026-04-24 01:45 31.12298 30.27944 37923 ft 453 kts 320°
2026-04-24 01:45 31.17634 30.24002 37928 ft 455 kts 321°
2026-04-24 01:46 31.23019 30.20123 37918 ft 455 kts 321°
2026-04-24 01:46 31.28402 30.16238 37921 ft 455 kts 321°
2026-04-24 01:47 31.33797 30.12319 37919 ft 455 kts 321°
2026-04-24 01:47 31.39159 30.08412 37922 ft 455 kts 321°
2026-04-24 01:48 31.44521 30.04498 37921 ft 455 kts 321°
2026-04-24 01:48 31.49898 30.00569 37925 ft 455 kts 321°
2026-04-24 01:49 31.55246 29.96655 37922 ft 456 kts 321°
2026-04-24 01:49 31.60655 29.92693 37927 ft 456 kts 321°
2026-04-24 01:50 31.66047 29.88737 37928 ft 457 kts 321°
2026-04-24 01:50 31.71408 29.84798 37929 ft 457 kts 321°
2026-04-24 01:51 31.76807 29.80825 37925 ft 458 kts 321°
2026-04-24 01:51 31.82200 29.76852 37931 ft 458 kts 321°
2026-04-24 01:52 31.87597 29.72870 37932 ft 459 kts 321°
2026-04-24 01:52 31.93019 29.68865 37933 ft 460 kts 321°
2026-04-24 01:53 31.97528 29.65528 37937 ft 461 kts 321°
2026-04-24 01:53 32.02991 29.61482 37935 ft 461 kts 321°
2026-04-24 01:54 32.08425 29.57452 37938 ft 462 kts 321°
2026-04-24 01:54 32.13847 29.53422 37935 ft 462 kts 321°
2026-04-24 01:55 32.19262 29.49378 37933 ft 462 kts 321°
2026-04-24 01:55 32.24708 29.45303 37934 ft 462 kts 321°
2026-04-24 01:56 32.30128 29.41245 37938 ft 463 kts 321°
2026-04-24 01:56 32.35592 29.37149 37937 ft 463 kts 321°
2026-04-24 01:57 32.41009 29.33082 37933 ft 463 kts 321°
2026-04-24 01:57 32.46467 29.28980 37937 ft 463 kts 321°
2026-04-24 01:58 32.51886 29.24900 37935 ft 464 kts 321°
2026-04-24 01:58 32.57358 29.20775 37924 ft 464 kts 321°
2026-04-24 01:59 32.62786 29.16676 37943 ft 464 kts 321°
2026-04-24 01:59 32.68231 29.12559 37934 ft 464 kts 321°
2026-04-24 02:00 32.73642 29.08461 37936 ft 464 kts 321°
2026-04-24 02:00 32.79102 29.04321 37936 ft 464 kts 321°
2026-04-24 02:01 32.84523 29.00204 37937 ft 464 kts 321°
2026-04-24 02:01 32.89966 28.96064 37934 ft 464 kts 321°
2026-04-24 02:02 32.95386 28.91936 37935 ft 464 kts 321°
2026-04-24 02:02 33.00849 28.87768 37936 ft 464 kts 321°
2026-04-24 02:03 33.09000 28.81538 37934 ft 464 kts 321°
2026-04-24 02:03 33.14405 28.77399 37939 ft 464 kts 321°
2026-04-24 02:04 33.19842 28.73230 37935 ft 464 kts 321°
2026-04-24 02:04 33.25269 28.69063 37935 ft 465 kts 321°
2026-04-24 02:05 33.30733 28.64860 37940 ft 465 kts 321°
2026-04-24 02:05 33.36148 28.60689 37945 ft 466 kts 321°
2026-04-24 02:06 33.41593 28.56488 37935 ft 466 kts 321°
2026-04-24 02:06 33.47063 28.52262 37942 ft 466 kts 321°
2026-04-24 02:07 33.52509 28.48048 37940 ft 467 kts 321°
2026-04-24 02:07 33.57937 28.43842 37939 ft 467 kts 321°
2026-04-24 02:08 33.63407 28.39597 37940 ft 467 kts 321°
2026-04-24 02:08 33.68855 28.35363 37942 ft 466 kts 322°
2026-04-24 02:09 33.74285 28.31136 37936 ft 465 kts 321°
2026-04-24 02:09 33.79679 28.26931 37936 ft 464 kts 321°
2026-04-24 02:10 33.85215 28.22921 37941 ft 466 kts 325°
2026-04-24 02:10 33.90920 28.19187 37947 ft 466 kts 326°
2026-04-24 02:11 33.96592 28.15454 37944 ft 465 kts 325°
2026-04-24 02:11 34.02232 28.11665 37942 ft 463 kts 325°
2026-04-24 02:12 34.07859 28.07847 37950 ft 463 kts 325°
2026-04-24 02:12 34.13424 28.04061 37949 ft 462 kts 325°
2026-04-24 02:13 34.19027 28.00246 37951 ft 461 kts 325°
2026-04-24 02:13 34.24605 27.96445 37949 ft 460 kts 324°
2026-04-24 02:14 34.30186 27.92636 37950 ft 460 kts 324°
2026-04-24 02:14 34.35745 27.88836 37950 ft 460 kts 324°
2026-04-24 02:15 34.41331 27.85012 37951 ft 460 kts 324°
2026-04-24 02:15 34.46864 27.81218 37955 ft 459 kts 324°
2026-04-24 02:16 34.52445 27.77386 37953 ft 459 kts 324°
2026-04-24 02:16 34.58016 27.73555 37951 ft 459 kts 324°
2026-04-24 02:17 34.63566 27.69714 37955 ft 459 kts 324°
2026-04-24 02:17 34.69104 27.65873 37955 ft 459 kts 324°
2026-04-24 02:18 34.74613 27.62051 37954 ft 458 kts 324°
2026-04-24 02:18 34.80165 27.58195 37956 ft 458 kts 324°
2026-04-24 02:19 34.85702 27.54343 37956 ft 457 kts 324°
2026-04-24 02:19 34.91203 27.50511 37955 ft 457 kts 324°
2026-04-24 02:20 34.96722 27.46659 37953 ft 457 kts 323°
2026-04-24 02:20 35.02227 27.42811 37957 ft 457 kts 323°
2026-04-24 02:21 35.07757 27.38940 37942 ft 458 kts 323°
2026-04-24 02:21 35.13274 27.35072 37929 ft 458 kts 323°
2026-04-24 02:22 35.18820 27.31177 37929 ft 458 kts 323°
2026-04-24 02:22 35.24323 27.27306 37925 ft 458 kts 323°
2026-04-24 02:23 35.29851 27.23412 37917 ft 458 kts 323°
2026-04-24 02:23 35.35347 27.19534 37916 ft 458 kts 323°
2026-04-24 02:24 35.40888 27.15619 37915 ft 458 kts 323°
2026-04-24 02:24 35.46330 27.11636 37916 ft 455 kts 321°
2026-04-24 02:25 35.51617 27.07417 37915 ft 454 kts 320°
2026-04-24 02:25 35.56921 27.03155 37927 ft 455 kts 320°
2026-04-24 02:26 35.62240 26.98935 37931 ft 455 kts 321°
2026-04-24 02:26 35.67578 26.94722 37945 ft 455 kts 321°
2026-04-24 02:27 35.72897 26.90524 37947 ft 455 kts 321°
2026-04-24 02:27 35.78210 26.86320 37950 ft 455 kts 321°
2026-04-24 02:28 35.83535 26.82099 37951 ft 455 kts 321°
2026-04-24 02:28 35.88855 26.77875 37954 ft 455 kts 321°
2026-04-24 02:29 35.94176 26.73645 37949 ft 456 kts 321°
2026-04-24 02:29 35.99521 26.69365 37954 ft 456 kts 320°
2026-04-24 02:30 36.04832 26.65100 37959 ft 457 kts 321°
2026-04-24 02:30 36.10174 26.60807 37958 ft 457 kts 321°
2026-04-24 02:31 36.15511 26.56514 37964 ft 458 kts 321°
2026-04-24 02:31 36.20845 26.52217 37960 ft 459 kts 321°
2026-04-24 02:32 36.26181 26.47911 37962 ft 459 kts 321°
2026-04-24 02:32 36.31536 26.43583 37964 ft 460 kts 321°
2026-04-24 02:33 36.36884 26.39254 37966 ft 460 kts 321°
2026-04-24 02:33 36.42262 26.34893 37966 ft 460 kts 321°
2026-04-24 02:34 36.47617 26.30544 37967 ft 460 kts 321°
2026-04-24 02:34 36.52959 26.26199 37973 ft 460 kts 321°
2026-04-24 02:35 36.58000 26.21416 37967 ft 453 kts 312°
2026-04-24 02:35 36.62578 26.16044 37968 ft 452 kts 311°
2026-04-24 02:36 36.67070 26.10590 37972 ft 452 kts 310°
2026-04-24 02:36 36.71574 26.05093 37969 ft 452 kts 310°
2026-04-24 02:37 36.76064 25.99625 37974 ft 453 kts 311°
2026-04-24 02:37 36.80592 25.94112 37973 ft 454 kts 311°
2026-04-24 02:38 36.85099 25.88618 37977 ft 455 kts 311°
2026-04-24 02:38 36.89615 25.83103 37975 ft 455 kts 311°
2026-04-24 02:39 36.94158 25.77543 37968 ft 456 kts 311°
2026-04-24 02:39 36.98686 25.71994 37973 ft 457 kts 311°
2026-04-24 02:40 37.03239 25.66403 37974 ft 457 kts 311°
2026-04-24 02:40 37.07759 25.60842 37973 ft 458 kts 311°
2026-04-24 02:41 37.12323 25.55218 37979 ft 459 kts 311°
2026-04-24 02:41 37.16866 25.49608 37983 ft 460 kts 311°
2026-04-24 02:42 37.20671 25.44904 37985 ft 461 kts 311°
2026-04-24 02:42 37.25216 25.39263 37984 ft 461 kts 311°
2026-04-24 02:43 37.30153 25.34054 37990 ft 467 kts 319°
2026-04-24 02:43 37.35438 25.29268 37990 ft 469 kts 320°
2026-04-24 02:44 37.40779 25.24545 37993 ft 469 kts 320°
2026-04-24 02:44 37.46130 25.19807 37985 ft 470 kts 320°
2026-04-24 02:45 37.51436 25.15082 37991 ft 470 kts 320°
2026-04-24 02:45 37.56794 25.10295 37994 ft 470 kts 321°
2026-04-24 02:46 37.62125 25.05521 37997 ft 471 kts 321°
2026-04-24 02:46 37.67444 25.00749 37998 ft 471 kts 321°
2026-04-24 02:47 37.72814 24.95924 38002 ft 472 kts 321°
2026-04-24 02:47 37.78171 24.91103 38004 ft 473 kts 321°
2026-04-24 02:48 37.83515 24.86283 38009 ft 474 kts 321°
2026-04-24 02:48 37.88872 24.81444 38010 ft 475 kts 321°
2026-04-24 02:49 37.94276 24.76553 38015 ft 476 kts 321°
2026-04-24 02:49 37.99638 24.71691 38014 ft 476 kts 321°
2026-04-24 02:50 38.05023 24.66800 38018 ft 477 kts 321°
2026-04-24 02:50 38.10426 24.61883 38024 ft 477 kts 322°
2026-04-24 02:51 38.15824 24.56961 38026 ft 478 kts 322°
2026-04-24 02:51 38.21204 24.52046 38023 ft 478 kts 322°
2026-04-24 02:52 38.26601 24.47083 38028 ft 479 kts 322°
2026-04-24 02:52 38.31989 24.42117 38028 ft 479 kts 322°
2026-04-24 02:53 38.37416 24.37110 38030 ft 480 kts 322°
2026-04-24 02:53 38.42798 24.32137 38031 ft 480 kts 322°
2026-04-24 02:54 38.48217 24.27122 38033 ft 481 kts 322°
2026-04-24 02:54 38.53629 24.22103 38037 ft 481 kts 323°
2026-04-24 02:55 38.59023 24.17091 38038 ft 482 kts 323°
2026-04-24 02:55 38.64457 24.12033 38042 ft 482 kts 323°
2026-04-24 02:56 38.69885 24.06970 38037 ft 483 kts 323°
2026-04-24 02:56 38.75315 24.01897 38041 ft 483 kts 323°
2026-04-24 02:57 38.80730 23.96826 38040 ft 483 kts 323°
2026-04-24 02:57 38.86169 23.91725 38037 ft 483 kts 323°
2026-04-24 02:58 38.91577 23.86642 38035 ft 483 kts 323°
2026-04-24 02:58 38.96995 23.81539 38039 ft 484 kts 323°
2026-04-24 02:59 39.02443 23.76398 38040 ft 484 kts 323°
2026-04-24 02:59 39.07869 23.71268 38035 ft 484 kts 323°
2026-04-24 03:00 39.13278 23.66144 38037 ft 484 kts 324°
2026-04-24 03:00 39.18432 23.60583 38037 ft 484 kts 313°
2026-04-24 03:01 39.22700 23.53910 38038 ft 485 kts 308°
2026-04-24 03:01 39.26808 23.46985 38042 ft 485 kts 308°
2026-04-24 03:02 39.30885 23.40028 38039 ft 486 kts 308°
2026-04-24 03:02 39.34974 23.33069 38045 ft 486 kts 308°
2026-04-24 03:03 39.39051 23.26147 38040 ft 486 kts 308°
2026-04-24 03:03 39.43133 23.19208 38047 ft 486 kts 308°
2026-04-24 03:04 39.47222 23.12239 38046 ft 486 kts 309°
2026-04-24 03:04 39.51295 23.05282 38047 ft 485 kts 309°
2026-04-24 03:05 39.55378 22.98293 38057 ft 485 kts 309°
2026-04-24 03:05 39.59433 22.91338 38062 ft 485 kts 309°
2026-04-24 03:06 39.63497 22.84349 38058 ft 485 kts 309°
2026-04-24 03:06 39.67554 22.77358 38059 ft 484 kts 309°
2026-04-24 03:07 39.71583 22.70398 38062 ft 484 kts 309°
2026-04-24 03:07 39.75638 22.63380 38064 ft 484 kts 309°
2026-04-24 03:08 39.81698 22.52862 38061 ft 484 kts 309°
2026-04-24 03:09 39.85733 22.45839 38068 ft 484 kts 309°
2026-04-24 03:09 39.89751 22.38832 38070 ft 484 kts 309°
2026-04-24 03:10 39.93763 22.31817 38065 ft 485 kts 309°
2026-04-24 03:10 39.97787 22.24768 38067 ft 485 kts 309°
2026-04-24 03:11 40.01824 22.17678 38067 ft 486 kts 309°
2026-04-24 03:11 40.05849 22.10595 38072 ft 487 kts 309°
2026-04-24 03:12 40.09889 22.03528 38070 ft 487 kts 311°
2026-04-24 03:12 40.14810 21.97479 38079 ft 481 kts 327°
2026-04-24 03:13 40.20366 21.92602 38076 ft 482 kts 329°
2026-04-24 03:13 40.26017 21.87910 38076 ft 483 kts 330°
2026-04-24 03:14 40.31708 21.83189 38075 ft 484 kts 329°
2026-04-24 03:14 40.37377 21.78441 38074 ft 484 kts 329°
2026-04-24 03:15 40.43034 21.73675 38072 ft 484 kts 329°
2026-04-24 03:15 40.48714 21.68877 38075 ft 483 kts 329°
2026-04-24 03:16 40.54356 21.64102 38077 ft 482 kts 329°
2026-04-24 03:16 40.59989 21.59327 38076 ft 481 kts 329°
2026-04-24 03:17 40.65584 21.54574 38076 ft 480 kts 329°
2026-04-24 03:17 40.71197 21.49796 38088 ft 479 kts 329°
2026-04-24 03:18 40.76763 21.45049 38089 ft 477 kts 329°
2026-04-24 03:18 40.82370 21.40258 38081 ft 476 kts 329°
2026-04-24 03:19 40.87594 21.34926 38086 ft 480 kts 317°
2026-04-24 03:19 40.91804 21.28023 38082 ft 482 kts 309°
2026-04-24 03:20 40.95676 21.20817 38103 ft 483 kts 308°
2026-04-24 03:20 40.99504 21.13546 38077 ft 482 kts 308°
2026-04-24 03:21 41.03346 21.06281 38077 ft 481 kts 308°
2026-04-24 03:21 41.07186 20.99046 38096 ft 480 kts 308°
2026-04-24 03:22 41.11046 20.91769 38076 ft 480 kts 308°
2026-04-24 03:22 41.14855 20.84569 38092 ft 480 kts 308°
2026-04-24 03:23 41.18689 20.77302 38089 ft 480 kts 308°
2026-04-24 03:23 41.22511 20.70041 38092 ft 479 kts 308°
2026-04-24 03:24 41.26317 20.62794 38093 ft 479 kts 308°
2026-04-24 03:24 41.30130 20.55514 38094 ft 479 kts 308°
2026-04-24 03:25 41.33951 20.48211 38086 ft 479 kts 308°
2026-04-24 03:25 41.37935 20.41106 38088 ft 478 kts 310°
2026-04-24 03:26 41.42014 20.34112 38084 ft 478 kts 311°
2026-04-24 03:26 41.46040 20.27136 38080 ft 478 kts 310°
2026-04-24 03:27 41.50072 20.20066 38078 ft 478 kts 310°
2026-04-24 03:27 41.54072 20.13008 38067 ft 478 kts 310°
2026-04-24 03:28 41.57404 20.07114 38067 ft 478 kts 310°
2026-04-24 03:28 41.61422 19.99997 38058 ft 478 kts 310°
2026-04-24 03:29 41.65423 19.92894 38053 ft 478 kts 310°
2026-04-24 03:29 41.69404 19.85813 38044 ft 477 kts 310°
2026-04-24 03:30 41.74054 19.77521 38047 ft 477 kts 310°
2026-04-24 03:30 41.77377 19.71578 38050 ft 477 kts 310°
2026-04-24 03:31 41.81351 19.64457 38047 ft 477 kts 310°
2026-04-24 03:31 41.85314 19.57342 38048 ft 477 kts 310°
2026-04-24 03:32 41.89294 19.50179 38044 ft 477 kts 310°
2026-04-24 03:32 41.93252 19.43038 38045 ft 477 kts 310°
2026-04-24 03:33 41.97191 19.35912 38053 ft 478 kts 310°
2026-04-24 03:33 42.01162 19.28710 38054 ft 478 kts 310°
2026-04-24 03:34 42.05097 19.21561 38057 ft 478 kts 310°
2026-04-24 03:34 42.09080 19.14306 38060 ft 478 kts 310°
2026-04-24 03:35 42.12998 19.07153 38068 ft 478 kts 310°
2026-04-24 03:35 42.16940 18.99939 38064 ft 478 kts 310°
2026-04-24 03:36 42.20882 18.92706 38067 ft 478 kts 310°
2026-04-24 03:36 42.24821 18.85461 38070 ft 479 kts 310°
2026-04-24 03:37 42.28760 18.78197 38072 ft 478 kts 310°
2026-04-24 03:37 42.32696 18.70924 38076 ft 479 kts 310°
2026-04-24 03:38 42.36439 18.63991 38073 ft 479 kts 310°
2026-04-24 03:38 42.40351 18.56728 38074 ft 479 kts 310°
2026-04-24 03:39 42.44280 18.49416 38074 ft 479 kts 310°
2026-04-24 03:39 42.48119 18.42031 38074 ft 480 kts 308°
2026-04-24 03:40 42.51768 18.34493 38076 ft 481 kts 307°
2026-04-24 03:40 42.55421 18.26914 38074 ft 481 kts 308°
2026-04-24 03:41 42.59117 18.19316 38074 ft 481 kts 308°
2026-04-24 03:41 42.62818 18.11734 38074 ft 481 kts 308°
2026-04-24 03:42 42.66492 18.04191 38077 ft 481 kts 308°
2026-04-24 03:42 42.70191 17.96577 38077 ft 481 kts 308°
2026-04-24 03:43 42.73867 17.88987 38087 ft 481 kts 308°
2026-04-24 03:43 42.77534 17.81396 38088 ft 481 kts 308°
2026-04-24 03:44 42.81198 17.73791 38093 ft 481 kts 308°
2026-04-24 03:44 42.84873 17.66145 38091 ft 481 kts 308°
2026-04-24 03:45 42.88522 17.58536 38087 ft 481 kts 308°
2026-04-24 03:45 42.92186 17.50896 38103 ft 481 kts 308°
2026-04-24 03:46 42.95917 17.43305 38089 ft 481 kts 308°
2026-04-24 03:46 42.99646 17.35747 38095 ft 481 kts 308°
2026-04-24 03:47 43.03392 17.28128 38083 ft 481 kts 309°
2026-04-24 03:47 43.07151 17.20549 38093 ft 481 kts 309°
2026-04-24 03:48 43.10901 17.12984 38099 ft 481 kts 309°
2026-04-24 03:48 43.14439 17.05227 38107 ft 484 kts 303°
2026-04-24 03:49 43.17614 16.97016 38100 ft 485 kts 302°
2026-04-24 03:49 43.20692 16.88802 38102 ft 485 kts 302°
2026-04-24 03:50 43.23765 16.80564 38097 ft 485 kts 302°
2026-04-24 03:50 43.26825 16.72366 38100 ft 485 kts 302°
2026-04-24 03:51 43.29898 16.64119 38100 ft 485 kts 302°
2026-04-24 03:51 43.32975 16.55844 38097 ft 485 kts 301°
2026-04-24 03:52 43.36033 16.47596 38099 ft 486 kts 301°
2026-04-24 03:52 43.39093 16.39315 38098 ft 486 kts 301°
2026-04-24 03:53 43.42148 16.31026 38101 ft 486 kts 301°
2026-04-24 03:53 43.45192 16.22738 38100 ft 486 kts 301°
2026-04-24 03:54 43.48228 16.14450 38101 ft 486 kts 301°
2026-04-24 03:54 43.51271 16.06116 38098 ft 486 kts 301°
2026-04-24 03:55 43.54287 15.97833 38097 ft 486 kts 301°
2026-04-24 03:55 43.57312 15.89499 38101 ft 486 kts 301°
2026-04-24 03:56 43.60346 15.81117 38121 ft 486 kts 301°
2026-04-24 03:56 43.63345 15.72803 38118 ft 486 kts 301°
2026-04-24 03:57 43.66362 15.64421 38115 ft 487 kts 301°
2026-04-24 03:57 43.69371 15.56028 38117 ft 487 kts 301°
2026-04-24 03:58 43.72371 15.47638 38116 ft 487 kts 301°
2026-04-24 03:58 43.75356 15.39263 38115 ft 487 kts 301°
2026-04-24 03:59 43.78365 15.30797 38117 ft 488 kts 301°
2026-04-24 03:59 43.81338 15.22407 38121 ft 488 kts 301°
2026-04-24 04:00 43.84314 15.13980 38127 ft 488 kts 301°
2026-04-24 04:00 43.87305 15.05483 38132 ft 489 kts 301°
2026-04-24 04:01 43.90275 14.97023 38133 ft 489 kts 300°
2026-04-24 04:01 43.93244 14.88537 38132 ft 489 kts 300°
2026-04-24 04:02 43.96202 14.80060 38138 ft 490 kts 300°
2026-04-24 04:02 43.99157 14.71562 38138 ft 490 kts 300°
2026-04-24 04:03 44.02115 14.63027 38135 ft 491 kts 300°
2026-04-24 04:03 44.05088 14.54424 38139 ft 491 kts 300°
2026-04-24 04:04 44.08044 14.45842 38134 ft 492 kts 300°
2026-04-24 04:04 44.10974 14.37310 38134 ft 492 kts 300°
2026-04-24 04:05 44.13923 14.28698 38136 ft 493 kts 300°
2026-04-24 04:05 44.16879 14.20034 38136 ft 493 kts 300°
2026-04-24 04:06 44.19809 14.11418 38138 ft 494 kts 300°
2026-04-24 04:06 44.22745 14.02756 38137 ft 494 kts 300°
2026-04-24 04:07 44.25673 13.94091 38136 ft 495 kts 300°
2026-04-24 04:07 44.28600 13.85401 38134 ft 495 kts 299°
2026-04-24 04:08 44.31510 13.76733 38134 ft 496 kts 299°
2026-04-24 04:08 44.34428 13.68012 38135 ft 496 kts 299°
2026-04-24 04:09 44.37355 13.59238 38130 ft 496 kts 299°
2026-04-24 04:09 44.40256 13.50513 38128 ft 497 kts 299°
2026-04-24 04:10 44.43127 13.41713 38135 ft 498 kts 297°
2026-04-24 04:10 44.45765 13.32716 38139 ft 499 kts 296°
2026-04-24 04:11 44.49646 13.19188 38142 ft 499 kts 296°
2026-04-24 04:11 44.52258 13.10205 38151 ft 500 kts 296°
2026-04-24 04:12 44.54891 13.01172 38151 ft 500 kts 296°
2026-04-24 04:12 44.57509 12.92162 38152 ft 500 kts 296°
2026-04-24 04:13 44.60125 12.83124 38146 ft 500 kts 296°
2026-04-24 04:13 44.62738 12.74057 38146 ft 501 kts 296°
2026-04-24 04:14 44.65330 12.65030 38140 ft 501 kts 295°
2026-04-24 04:14 44.67493 12.57471 38147 ft 501 kts 295°
2026-04-24 04:15 44.70091 12.48362 38133 ft 501 kts 295°
2026-04-24 04:15 44.72680 12.39253 38145 ft 501 kts 295°
2026-04-24 04:16 44.75248 12.30182 38132 ft 501 kts 295°
2026-04-24 04:16 44.77835 12.21010 38142 ft 502 kts 295°
2026-04-24 04:17 44.80384 12.11940 38139 ft 501 kts 295°
2026-04-24 04:17 44.82940 12.02812 38151 ft 501 kts 295°
2026-04-24 04:18 44.85493 11.93658 38146 ft 501 kts 295°
2026-04-24 04:18 44.88026 11.84542 38158 ft 501 kts 295°
2026-04-24 04:19 44.90565 11.75373 38152 ft 501 kts 295°
2026-04-24 04:19 44.93088 11.66226 38166 ft 501 kts 294°
2026-04-24 04:20 44.95617 11.57022 38157 ft 501 kts 294°
2026-04-24 04:20 44.98130 11.47841 38172 ft 501 kts 294°
2026-04-24 04:21 45.00631 11.38668 38158 ft 501 kts 294°
2026-04-24 04:21 45.03135 11.29451 38159 ft 501 kts 294°
2026-04-24 04:22 45.05610 11.20305 38139 ft 501 kts 294°
2026-04-24 04:22 45.08096 11.11083 38139 ft 501 kts 294°
2026-04-24 04:23 45.10579 11.01838 38129 ft 501 kts 294°
2026-04-24 04:23 45.13032 10.92670 38137 ft 501 kts 294°
2026-04-24 04:24 45.15491 10.83442 38137 ft 500 kts 294°
2026-04-24 04:24 45.17944 10.74198 38149 ft 500 kts 293°
2026-04-24 04:25 45.20388 10.64955 38143 ft 500 kts 293°
2026-04-24 04:25 45.22812 10.55751 38147 ft 500 kts 293°
2026-04-24 04:26 45.25237 10.46510 38132 ft 499 kts 293°
2026-04-24 04:26 45.27654 10.37258 38133 ft 499 kts 293°
2026-04-24 04:27 45.30044 10.28075 38129 ft 499 kts 293°
2026-04-24 04:27 45.32446 10.18812 38109 ft 499 kts 292°
2026-04-24 04:28 45.34837 10.09552 38102 ft 498 kts 292°
2026-04-24 04:28 45.37217 10.00297 38114 ft 498 kts 292°
2026-04-24 04:29 45.39571 9.91111 38112 ft 497 kts 292°
2026-04-24 04:29 45.41931 9.81860 38119 ft 496 kts 292°
2026-04-24 04:30 45.44278 9.72627 38110 ft 496 kts 292°
2026-04-24 04:30 45.46620 9.63374 38112 ft 495 kts 292°
2026-04-24 04:31 45.48849 9.54533 38101 ft 0 kts 292°
2026-04-24 04:31 45.49902 9.50740 38327 ft 494 kts 293°
2026-04-24 04:31 45.51091 9.46136 38155 ft 496 kts 292°
2026-04-24 04:32 45.53353 9.36846 38097 ft 495 kts 291°
2026-04-24 04:32 45.55593 9.27628 38133 ft 494 kts 291°
2026-04-24 04:33 45.57872 9.18373 38129 ft 493 kts 291°
2026-04-24 04:33 45.60158 9.09130 38138 ft 493 kts 291°
2026-04-24 04:34 45.62434 8.99898 38130 ft 492 kts 291°
2026-04-24 04:34 45.64688 8.90710 38136 ft 492 kts 291°
2026-04-24 04:35 45.66944 8.81471 38128 ft 491 kts 291°
2026-04-24 04:35 45.69190 8.72235 38137 ft 491 kts 291°
2026-04-24 04:36 45.71424 8.63008 38132 ft 490 kts 291°
2026-04-24 04:36 45.73634 8.53848 38136 ft 490 kts 291°
2026-04-24 04:37 45.75851 8.44617 38135 ft 489 kts 291°
2026-04-24 04:37 45.78049 8.35426 38139 ft 489 kts 291°
2026-04-24 04:38 45.80248 8.26195 38129 ft 489 kts 291°
2026-04-24 04:38 45.82440 8.16956 38137 ft 488 kts 291°
2026-04-24 04:39 45.84607 8.07780 38132 ft 488 kts 290°
2026-04-24 04:39 45.86786 7.98525 38134 ft 488 kts 290°
2026-04-24 04:40 45.88939 7.89341 37877 ft 488 kts 289°
2026-04-24 04:40 45.90024 7.84703 38108 ft 489 kts 289°
2026-04-24 04:40 45.91110 7.80046 38140 ft 495 kts 289°
2026-04-24 04:41 45.93307 7.70582 38136 ft 507 kts 289°
2026-04-24 04:41 45.95531 7.60965 38154 ft 506 kts 289°
2026-04-24 04:42 45.98619 7.51933 38180 ft 502 kts 307°
2026-04-24 04:42 46.02817 7.43895 38197 ft 501 kts 309°
2026-04-24 04:43 46.07155 7.36099 38218 ft 501 kts 310°
2026-04-24 04:43 46.11530 7.28260 38236 ft 501 kts 310°
2026-04-24 04:44 46.15858 7.20425 38232 ft 501 kts 309°
2026-04-24 04:44 46.20173 7.12559 38223 ft 501 kts 309°
2026-04-24 04:45 46.24492 7.04655 38219 ft 500 kts 309°
2026-04-24 04:45 46.28802 6.96749 38203 ft 500 kts 309°
2026-04-24 04:46 46.33109 6.88826 38197 ft 500 kts 309°
2026-04-24 04:46 46.37379 6.80951 38192 ft 500 kts 308°
2026-04-24 04:47 46.41672 6.73010 38201 ft 500 kts 308°
2026-04-24 04:47 46.45639 6.64729 38206 ft 500 kts 301°
2026-04-24 04:48 46.49164 6.56024 38212 ft 500 kts 300°
2026-04-24 04:48 46.52617 6.47238 38213 ft 500 kts 300°
2026-04-24 04:49 46.56058 6.38445 38215 ft 500 kts 299°
2026-04-24 04:49 46.59499 6.29654 38215 ft 500 kts 299°
2026-04-24 04:50 46.62916 6.20909 38215 ft 500 kts 299°
2026-04-24 04:50 46.66355 6.12086 38210 ft 500 kts 299°
2026-04-24 04:51 46.69785 6.03258 38213 ft 500 kts 299°
2026-04-24 04:51 46.73205 5.94422 38211 ft 500 kts 299°
2026-04-24 04:52 46.76596 5.85635 38207 ft 500 kts 299°
2026-04-24 04:52 46.80030 5.76772 38199 ft 500 kts 301°
2026-04-24 04:53 46.84423 5.68899 38194 ft 500 kts 316°
2026-04-24 04:53 46.89437 5.61935 38187 ft 501 kts 317°
2026-04-24 04:54 46.94519 5.54946 38183 ft 501 kts 317°
2026-04-24 04:54 46.99605 5.47937 38185 ft 502 kts 317°
2026-04-24 04:55 47.02149 5.44424 38059 ft 502 kts 317°
2026-04-24 04:55 47.04690 5.40912 37992 ft 502 kts 317°
2026-04-24 04:55 47.09738 5.33920 37990 ft 502 kts 317°
2026-04-24 04:56 47.14074 5.27898 37943 ft 501 kts 317°
2026-04-24 04:56 47.16597 5.24388 37322 ft 500 kts 317°
2026-04-24 04:56 47.19138 5.20848 36367 ft 506 kts 316°
2026-04-24 04:57 47.21700 5.17275 35628 ft 509 kts 316°
2026-04-24 04:57 47.24274 5.13679 34931 ft 511 kts 316°
2026-04-24 04:57 47.26867 5.10052 34162 ft 514 kts 316°
2026-04-24 04:57 47.29431 5.06348 33333 ft 517 kts 314°
2026-04-24 04:58 47.31906 5.02504 32532 ft 518 kts 313°
2026-04-24 04:58 47.34382 4.98626 31729 ft 520 kts 313°
2026-04-24 04:58 47.36874 4.94743 30911 ft 522 kts 313°
2026-04-24 04:58 47.39385 4.90842 30013 ft 525 kts 313°
2026-04-24 04:59 47.41874 4.86981 29101 ft 526 kts 313°
2026-04-24 04:59 47.44397 4.83066 28444 ft 522 kts 313°
2026-04-24 04:59 47.46890 4.79197 27835 ft 517 kts 313°
2026-04-24 04:59 47.49365 4.75351 27230 ft 513 kts 313°
2026-04-24 05:00 47.51815 4.71549 26788 ft 507 kts 313°
2026-04-24 05:00 47.54237 4.67779 26381 ft 505 kts 313°
2026-04-24 05:00 47.56651 4.64014 25979 ft 502 kts 313°
2026-04-24 05:00 47.59049 4.60269 25579 ft 499 kts 313°
2026-04-24 05:01 47.61430 4.56547 25172 ft 496 kts 314°
2026-04-24 05:01 47.63796 4.52843 24754 ft 492 kts 314°
2026-04-24 05:01 47.66115 4.49208 24356 ft 489 kts 314°
2026-04-24 05:01 47.68448 4.45545 23956 ft 486 kts 314°
2026-04-24 05:02 47.70765 4.41904 23523 ft 483 kts 314°
2026-04-24 05:02 47.73066 4.38283 23118 ft 480 kts 314°
2026-04-24 05:02 47.75353 4.34680 22723 ft 476 kts 314°
2026-04-24 05:02 47.77617 4.31107 22320 ft 472 kts 314°
2026-04-24 05:03 47.79836 4.27601 21940 ft 469 kts 314°
2026-04-24 05:03 47.82060 4.24081 21553 ft 465 kts 314°
2026-04-24 05:03 47.84256 4.20594 21361 ft 451 kts 315°
2026-04-24 05:03 47.86349 4.17225 21095 ft 437 kts 314°
2026-04-24 05:04 47.87571 4.14839 20678 ft 437 kts 304°
2026-04-24 05:04 47.88808 4.10725 20239 ft 437 kts 288°
2026-04-24 05:04 47.89535 4.06321 19855 ft 438 kts 284°
2026-04-24 05:04 47.90169 4.01887 19488 ft 437 kts 284°
2026-04-24 05:05 47.90798 3.97459 19134 ft 436 kts 284°
2026-04-24 05:05 47.91430 3.93040 18767 ft 434 kts 284°
2026-04-24 05:05 47.92062 3.88638 18402 ft 433 kts 284°
2026-04-24 05:05 47.92691 3.84250 18023 ft 431 kts 284°
2026-04-24 05:06 47.93317 3.79889 17667 ft 429 kts 284°
2026-04-24 05:06 47.93923 3.75654 17467 ft 415 kts 284°
2026-04-24 05:06 47.94516 3.71499 17242 ft 403 kts 284°
2026-04-24 05:06 47.95089 3.67479 16987 ft 387 kts 284°
2026-04-24 05:07 47.95634 3.63643 16497 ft 366 kts 284°
2026-04-24 05:07 47.96173 3.59937 16271 ft 367 kts 285°
2026-04-24 05:07 47.97099 3.56414 15997 ft 362 kts 303°
2026-04-24 05:07 47.98651 3.53501 15529 ft 357 kts 316°
2026-04-24 05:08 48.00386 3.50874 15172 ft 354 kts 318°
2026-04-24 05:08 48.02109 3.48304 14873 ft 354 kts 317°
2026-04-24 05:08 48.03846 3.45691 14582 ft 353 kts 317°
2026-04-24 05:08 48.05570 3.43078 14291 ft 352 kts 317°
2026-04-24 05:09 48.07286 3.40466 13997 ft 351 kts 317°
2026-04-24 05:09 48.08992 3.37860 13701 ft 350 kts 317°
2026-04-24 05:09 48.10690 3.35262 13392 ft 348 kts 317°
2026-04-24 05:09 48.12380 3.32670 13097 ft 347 kts 317°
2026-04-24 05:10 48.14052 3.30103 12920 ft 338 kts 317°
2026-04-24 05:10 48.15647 3.27648 12763 ft 327 kts 317°
2026-04-24 05:10 48.17212 3.25238 12558 ft 318 kts 317°
2026-04-24 05:10 48.18727 3.22902 12250 ft 308 kts 317°
2026-04-24 05:11 48.20222 3.20601 11995 ft 307 kts 317°
2026-04-24 05:11 48.21716 3.18308 11611 ft 307 kts 317°
2026-04-24 05:11 48.23203 3.16022 11292 ft 305 kts 317°
2026-04-24 05:11 48.24680 3.13747 11023 ft 304 kts 317°
2026-04-24 05:12 48.26153 3.11477 10778 ft 303 kts 317°
2026-04-24 05:12 48.27622 3.09211 10531 ft 302 kts 317°
2026-04-24 05:12 48.29071 3.06973 10297 ft 301 kts 317°
2026-04-24 05:12 48.30533 3.04718 10218 ft 301 kts 317°
2026-04-24 05:13 48.33442 3.00214 10219 ft 301 kts 317°
2026-04-24 05:13 48.34900 2.97953 10221 ft 301 kts 317°
2026-04-24 05:13 48.36345 2.95675 10226 ft 302 kts 314°
2026-04-24 05:14 48.37402 2.92938 10226 ft 306 kts 289°
2026-04-24 05:14 48.37749 2.89781 10230 ft 307 kts 274°
2026-04-24 05:14 48.37834 2.86562 10223 ft 308 kts 272°
2026-04-24 05:14 48.37884 2.83337 10174 ft 309 kts 272°
2026-04-24 05:15 48.37930 2.80114 10015 ft 308 kts 272°
2026-04-24 05:15 48.37976 2.76890 9892 ft 308 kts 272°
2026-04-24 05:15 48.38023 2.73669 9750 ft 307 kts 272°
2026-04-24 05:15 48.38070 2.70457 9620 ft 307 kts 272°
2026-04-24 05:16 48.38117 2.67244 9488 ft 306 kts 272°
2026-04-24 05:16 48.38166 2.64041 9360 ft 306 kts 272°
2026-04-24 05:16 48.38214 2.60849 9231 ft 305 kts 272°
2026-04-24 05:16 48.38264 2.57657 9096 ft 305 kts 272°
2026-04-24 05:17 48.38313 2.54469 8896 ft 304 kts 272°
2026-04-24 05:17 48.38363 2.51325 8672 ft 304 kts 272°
2026-04-24 05:17 48.38415 2.48147 8441 ft 303 kts 272°
2026-04-24 05:17 48.38467 2.44976 8208 ft 302 kts 272°
2026-04-24 05:18 48.38519 2.41818 7988 ft 301 kts 272°
2026-04-24 05:18 48.38572 2.38673 7765 ft 301 kts 272°
2026-04-24 05:18 48.38627 2.35529 7570 ft 300 kts 272°
2026-04-24 05:18 48.38682 2.32388 7375 ft 299 kts 272°
2026-04-24 05:19 48.38738 2.29258 7177 ft 299 kts 271°
2026-04-24 05:19 48.38796 2.26169 6989 ft 298 kts 272°
2026-04-24 05:19 48.38858 2.23052 6780 ft 297 kts 272°
2026-04-24 05:19 48.38920 2.19936 6591 ft 297 kts 272°
2026-04-24 05:20 48.39128 2.16855 6490 ft 296 kts 284°
2026-04-24 05:20 48.39918 2.14017 6486 ft 293 kts 307°
2026-04-24 05:20 48.41359 2.11992 6351 ft 285 kts 333°
2026-04-24 05:20 48.43110 2.10650 6098 ft 282 kts 339°
2026-04-24 05:21 48.44926 2.09419 5842 ft 282 kts 340°
2026-04-24 05:21 48.46689 2.08226 5596 ft 281 kts 340°
2026-04-24 05:21 48.48467 2.07015 5426 ft 281 kts 340°
2026-04-24 05:21 48.50193 2.05831 5307 ft 281 kts 340°
2026-04-24 05:22 48.51970 2.04609 5197 ft 275 kts 340°
2026-04-24 05:22 48.53674 2.03431 5078 ft 263 kts 340°
2026-04-24 05:22 48.55304 2.02303 4979 ft 253 kts 340°
2026-04-24 05:22 48.56874 2.01215 4884 ft 243 kts 340°
2026-04-24 05:23 48.58367 2.00137 4791 ft 231 kts 337°
2026-04-24 05:23 48.59834 1.99475 4666 ft 212 kts
2026-04-24 05:23 48.61105 2.00261 4554 ft 194 kts 51°
2026-04-24 05:23 48.61623 2.01642 4494 ft 188 kts 75°
2026-04-24 05:24 48.62073 2.03514 4401 ft 188 kts 69°
2026-04-24 05:24 48.62617 2.05216 4401 ft 171 kts 65°
2026-04-24 05:24 48.63164 2.06758 4212 ft 167 kts 65°
2026-04-24 05:24 48.63716 2.08316 3912 ft 168 kts 65°
2026-04-24 05:25 48.64272 2.09892 3591 ft 170 kts 65°
2026-04-24 05:25 48.64814 2.11419 3335 ft 162 kts 65°
2026-04-24 05:25 48.65328 2.12865 3129 ft 151 kts 65°
2026-04-24 05:25 48.65620 2.13690 3006 ft 149 kts 65°
2026-04-24 05:26 48.66099 2.15041 2806 ft 141 kts 65°
2026-04-24 05:26 48.66555 2.16328 2629 ft 136 kts 65°
2026-04-24 05:26 48.66990 2.17555 2438 ft 132 kts 66°
2026-04-24 05:26 48.67421 2.18771 2267 ft 131 kts 66°
2026-04-24 05:27 48.67852 2.19990 2083 ft 131 kts 66°
2026-04-24 05:27 48.68282 2.21206 1895 ft 130 kts 66°
2026-04-24 05:27 48.68711 2.22418 1724 ft 131 kts 66°
2026-04-24 05:27 48.69141 2.23633 1550 ft 131 kts 65°
2026-04-24 05:28 48.69567 2.24838 1370 ft 132 kts 62°
2026-04-24 05:28 48.70004 2.26071 1203 ft 133 kts 62°
2026-04-24 05:28 48.70439 2.27317 1050 ft 135 kts 61°
2026-04-24 05:28 48.70888 2.28570 869 ft 135 kts 59°
2026-04-24 05:29 48.71345 2.29829 678 ft 136 kts 60°
2026-04-24 05:29 48.71796 2.31089 472 ft 135 kts 61°
2026-04-24 05:29 48.72235 2.32334 330 ft 134 kts 63°
2026-04-24 05:29 48.72636 2.33482 301 ft 105 kts 61°
2026-04-24 05:30 48.72901 2.34242 302 ft 58 kts 62°
2026-04-24 05:30 48.72994 2.34582 301 ft 12 kts 79°
2026-04-24 05:30 48.73007 2.34722 301 ft 17 kts 83°
2026-04-24 05:30 48.73026 2.34920 299 ft 13 kts 82°
2026-04-24 05:31 48.73039 2.35053 301 ft 12 kts 83°
2026-04-24 05:31 48.73021 2.35207 302 ft 12 kts 117°
2026-04-24 05:31 48.72958 2.35296 303 ft 14 kts 150°
2026-04-24 05:31 48.72857 2.35312 302 ft 16 kts 194°
2026-04-24 05:32 48.72771 2.35267 302 ft 10 kts 199°
2026-04-24 05:32 48.72674 2.35267 302 ft 17 kts 167°
2026-04-24 05:32 48.72562 2.35315 300 ft 11 kts 164°
2026-04-24 05:32 48.72486 2.35346 302 ft 11 kts 165°
2026-04-24 05:33 48.72430 2.35377 303 ft 8 kts 141°
2026-04-24 05:33 48.72423 2.35425 302 ft 0 kts 88°
2026-04-24 05:33 48.72424 2.35447 301 ft 5 kts 84°
2026-04-24 05:34 48.72457 2.35645 301 ft 12 kts 75°
2026-04-24 05:34 48.72477 2.35765 303 ft 13 kts 82°
2026-04-24 05:34 48.72471 2.35921 298 ft 15 kts 96°
2026-04-24 05:34 48.72481 2.36093 301 ft 18 kts 75°
2026-04-24 05:35 48.72518 2.36292 303 ft 21 kts 75°
2026-04-24 05:35 48.72551 2.36475 302 ft 17 kts 75°
2026-04-24 05:35 48.72589 2.36652 302 ft 19 kts 69°
2026-04-24 05:35 48.72632 2.36829 302 ft 18 kts 70°
2026-04-24 05:36 48.72667 2.37003 302 ft 17 kts 74°
2026-04-24 05:36 48.72702 2.37189 302 ft 19 kts 74°
2026-04-24 05:36 48.72733 2.37361 302 ft 15 kts 74°
2026-04-24 05:36 48.72761 2.37514 299 ft 16 kts 75°
2026-04-24 05:37 48.72791 2.37673 301 ft 11 kts 74°
2026-04-24 05:37 48.72820 2.37765 303 ft 11 kts 41°
2026-04-24 05:37 48.72892 2.37809 302 ft 11 kts 18°
2026-04-24 05:37 48.72979 2.37852 303 ft 12 kts 18°
2026-04-24 05:38 48.73025 2.37876 303 ft 2 kts 18°
2026-04-24 05:38 48.73048 2.37877 300 ft 4 kts 340°
2026-04-24 05:38 48.73066 2.37826 301 ft 7 kts 291°
2026-04-24 05:38 48.73077 2.37750 302 ft 8 kts 269°
2026-04-24 05:39 48.73072 2.37692 301 ft 4 kts 263°
2026-04-24 05:39 48.73069 2.37658 301 ft 2 kts 263°
2026-04-24 05:39 48.73067 2.37637 302 ft 2 kts 263°
2026-04-24 05:39 48.73067 2.37634 302 ft 0 kts 263°